Darstellungsparameter: Aktuell verwendete Einstellungen:
Skalierung der Graphiken ... ?
xyx+y,   Skalierungsfaktor:      Skalierung: Modus: x, Faktor: 1
Darstellungszeitraum ... ?
Vom - - bis: - -   Zeitraum: 30.07.2008 - 12.08.2008
Min/Max/Avg-Anzeige ... ?
Zeige MMA aktuell
Zeige MMA Monat
Zeige MMA alles
Zeige --A aktuell
Zeige --A Monat
Zeige --A alles
Keine MMA-Anzeige
MMA:
Average (ber die Originaldaten)
MMA-Basis: 17.04.2019 - 19.05.2019
Quicknavigation für Darstellung... ?
Tage:      1T, 2T, 3T, 5T -1T -2T -3T -5T +1T +2T +3T +5T
Wochen: 1W, 2W, 3W -1W -2W -3W +1W +2W +3W
Monate: 1M, 3M, 6M -1M -3M -6M +1M +3M +6M
Jahre:    1J, 3J, 5J, 10J -1J -3J -5J -10J +1J +3J +5J +10J
Nutze für die Darstellung ... ?
Originaldaten oder Mittelwerte auf ...
Stundenbasis Tagesbasis Wochenbasis
Monatsbasis Jahresbasis      Datenbasis: Original-Daten
Darstellen als:
Statistik (Auto) Statistik J:M      Darstellung:
Zur Graphik,    zurück zur Übersicht aller Sensoren.
 
Tabellarische Datenbersicht: ?
 
Sensor: Nr:Datum:Temp:Abs-Feuchte:Windchill:Wind:
Aussen-T/F 1 30-07-2008 00:05:38 21.7 C 12.21 g/m*3 21.7 C 0 km/h
2 30-07-2008 00:35:38 21.1 C 12.53 g/m*3 21.1 C 0 km/h
3 30-07-2008 01:05:39 20.7 C 12.78 g/m*3 20.7 C 0 km/h
4 30-07-2008 01:35:39 20.6 C 12.71 g/m*3 20.6 C 0 km/h
5 30-07-2008 02:05:39 20.3 C 12.49 g/m*3 20.3 C 0 km/h
6 30-07-2008 02:35:39 19.9 C 12.54 g/m*3 19.9 C 0 km/h
7 30-07-2008 03:05:39 19.5 C 12.42 g/m*3 19.5 C 0 km/h
8 30-07-2008 03:35:39 19 C 12.55 g/m*3 19 C 0 km/h
9 30-07-2008 04:05:39 18.9 C 12.47 g/m*3 18.9 C 0 km/h
10 30-07-2008 04:35:39 18.7 C 12.49 g/m*3 18.7 C 0 km/h
11 30-07-2008 05:05:39 18.3 C 12.51 g/m*3 18.3 C 0 km/h
12 30-07-2008 05:35:39 18.1 C 12.36 g/m*3 18.1 C 0 km/h
13 30-07-2008 06:05:39 17.9 C 12.37 g/m*3 17.9 C 0 km/h
14 30-07-2008 06:35:39 17.8 C 12.45 g/m*3 17.8 C 0 km/h
15 30-07-2008 07:05:39 17.8 C 12.45 g/m*3 17.8 C 0 km/h
16 30-07-2008 07:35:39 17.8 C 12.45 g/m*3 17.8 C 0 km/h
17 30-07-2008 08:05:39 19 C 12.71 g/m*3 19 C 0 km/h
18 30-07-2008 08:35:39 19.9 C 12.54 g/m*3 19.9 C 0 km/h
19 30-07-2008 09:05:39 20.7 C 12.6 g/m*3 20.7 C 0 km/h
20 30-07-2008 09:35:39 22 C 12.81 g/m*3 22 C 0 km/h
21 30-07-2008 10:05:39 22.7 C 12.93 g/m*3 22.7 C 0 km/h
22 30-07-2008 10:35:40 24.8 C 12.97 g/m*3 24.8 C 0 km/h
23 30-07-2008 11:05:40 26.1 C 12.49 g/m*3 26.1 C 0 km/h
24 30-07-2008 11:35:40 26.8 C 12.22 g/m*3 26.8 C 0 km/h
25 30-07-2008 12:05:40 27.5 C 12.43 g/m*3 27.5 C 0 km/h
Sensor: Nr:Datum:Temp:Abs-Feuchte:Windchill:Wind:
Aussen-T/F 26 30-07-2008 12:35:40 29.3 C 11.97 g/m*3 29.3 C 0 km/h
27 30-07-2008 13:05:40 29.6 C 11.87 g/m*3 29.6 C 0 km/h
28 30-07-2008 13:35:40 30 C 10.92 g/m*3 30 C 0 km/h
29 30-07-2008 14:05:40 29.8 C 11.4 g/m*3 29.8 C 0 km/h
30 30-07-2008 14:35:40 31.7 C 10.3 g/m*3 31.7 C 0 km/h
31 30-07-2008 15:05:40 32.7 C 9.11 g/m*3 32.7 C 0 km/h
32 30-07-2008 15:35:40 32 C 9.45 g/m*3 32 C 0 km/h
33 30-07-2008 16:05:40 31.8 C 10.02 g/m*3 31.8 C 0 km/h
34 30-07-2008 16:35:40 33.2 C 8.63 g/m*3 33.2 C 0 km/h
35 30-07-2008 17:05:40 33.3 C 7.96 g/m*3 33.3 C 0 km/h
36 30-07-2008 17:35:40 33.6 C 8.08 g/m*3 33.6 C 0 km/h
37 30-07-2008 18:05:40 34 C 7.5 g/m*3 34 C 0 km/h
38 30-07-2008 18:35:40 24.5 C 5.82 g/m*3 24.5 C 0 km/h
39 30-07-2008 19:05:40 21.2 C 4.82 g/m*3 21.2 C 0 km/h
40 30-07-2008 19:35:40 22.4 C 6.16 g/m*3 22.4 C 0 km/h
41 30-07-2008 20:05:41 24.6 C 18.01 g/m*3 24.6 C 0 km/h
42 30-07-2008 20:35:41 23 C 15.42 g/m*3 23 C 0 km/h
43 30-07-2008 21:05:41 22.1 C 13.66 g/m*3 22.1 C 0 km/h
44 30-07-2008 21:35:41 20.1 C 14.78 g/m*3 20.1 C 0 km/h
45 30-07-2008 22:05:41 20.1 C 15.12 g/m*3 20.1 C 0 km/h
46 30-07-2008 22:35:41 20.1 C 15.12 g/m*3 20.1 C 0 km/h
47 30-07-2008 23:05:41 20 C 14.86 g/m*3 20 C 0 km/h
48 30-07-2008 23:35:41 19.6 C 14.69 g/m*3 19.6 C 0 km/h
49 31-07-2008 00:05:41 19.1 C 13.93 g/m*3 19.1 C 0 km/h
50 31-07-2008 00:35:41 18.7 C 13.77 g/m*3 18.7 C 0 km/h
Sensor: Nr:Datum:Temp:Abs-Feuchte:Windchill:Wind:
Aussen-T/F 51 31-07-2008 01:05:41 18.5 C 13.61 g/m*3 18.5 C 0 km/h
52 31-07-2008 01:35:41 18.4 C 13.53 g/m*3 18.4 C 0 km/h
53 31-07-2008 02:05:41 18.1 C 13.44 g/m*3 18.1 C 0 km/h
54 31-07-2008 02:35:41 17.9 C 13.44 g/m*3 17.9 C 0 km/h
55 31-07-2008 03:05:41 17.6 C 13.2 g/m*3 17.6 C 0 km/h
56 31-07-2008 03:35:41 17.4 C 13.04 g/m*3 17.4 C 0 km/h
57 31-07-2008 04:05:41 17.1 C 12.96 g/m*3 17.1 C 0 km/h
58 31-07-2008 04:35:41 17.2 C 13.18 g/m*3 17.2 C 0 km/h
59 31-07-2008 05:05:41 17.2 C 13.03 g/m*3 17.2 C 0 km/h
60 31-07-2008 05:35:42 17.4 C 13.19 g/m*3 17.4 C 0 km/h
61 31-07-2008 06:05:42 17 C 12.73 g/m*3 17 C 0 km/h
62 31-07-2008 06:35:42 17.5 C 13.12 g/m*3 17.5 C 0 km/h
63 31-07-2008 07:05:42 17.2 C 12.59 g/m*3 17.2 C 0 km/h
64 31-07-2008 07:35:42 17.1 C 12.66 g/m*3 17.1 C 0 km/h
65 31-07-2008 08:05:42 17.9 C 13.28 g/m*3 17.9 C 0 km/h
66 31-07-2008 08:35:42 18.5 C 13.13 g/m*3 18.5 C 0 km/h
67 31-07-2008 09:05:42 18.9 C 12.96 g/m*3 18.9 C 0 km/h
68 31-07-2008 09:35:42 19.7 C 13.75 g/m*3 19.7 C 0 km/h
69 31-07-2008 10:05:42 21 C 14.29 g/m*3 21 C 0 km/h
70 31-07-2008 10:35:42 22.9 C 15.12 g/m*3 22.9 C 0 km/h
71 31-07-2008 11:05:42 24.8 C 13.88 g/m*3 24.8 C 0 km/h
72 31-07-2008 11:35:42 26.6 C 13.84 g/m*3 26.6 C 0 km/h
73 31-07-2008 12:05:42 27.8 C 13.18 g/m*3 27.8 C 0 km/h
74 31-07-2008 12:35:42 29.5 C 12.4 g/m*3 29.5 C 0 km/h
75 31-07-2008 13:05:42 30.7 C 11.34 g/m*3 30.7 C 0 km/h
Sensor: Nr:Datum:Temp:Abs-Feuchte:Windchill:Wind:
Aussen-T/F 76 31-07-2008 13:35:42 31.6 C 9.91 g/m*3 31.6 C 0 km/h
77 31-07-2008 14:05:42 31.4 C 9.81 g/m*3 31.4 C 0 km/h
78 31-07-2008 14:35:42 30.8 C 10.76 g/m*3 30.8 C 0 km/h
79 31-07-2008 15:05:43 31.5 C 10.19 g/m*3 31.5 C 0 km/h
80 31-07-2008 15:35:43 31.5 C 10.52 g/m*3 31.5 C 0 km/h
81 31-07-2008 16:05:43 33.3 C 9.04 g/m*3 33.3 C 0 km/h
82 31-07-2008 16:35:43 33.8 C 8.54 g/m*3 33.8 C 0 km/h
83 31-07-2008 17:05:43 33.7 C 8.49 g/m*3 33.7 C 0 km/h
84 31-07-2008 17:35:43 33.9 C 7.84 g/m*3 33.9 C 0 km/h
85 31-07-2008 18:05:43 34.1 C 8.3 g/m*3 34.1 C 0 km/h
86 31-07-2008 18:35:43 33.8 C 8.91 g/m*3 33.8 C 0 km/h
87 31-07-2008 19:05:43 33.3 C 9.04 g/m*3 33.3 C 0 km/h
88 31-07-2008 19:35:43 32.9 C 9.56 g/m*3 32.9 C 0 km/h
89 31-07-2008 20:05:43 32 C 10.47 g/m*3 32 C 0 km/h
90 31-07-2008 20:35:43 29.7 C 12.23 g/m*3 29.7 C 0 km/h
91 31-07-2008 21:05:43 27.9 C 12.17 g/m*3 27.9 C 0 km/h
92 31-07-2008 21:35:43 26.8 C 12.22 g/m*3 26.8 C 0 km/h
93 31-07-2008 22:05:43 26.1 C 11.75 g/m*3 26.1 C 0 km/h
94 31-07-2008 22:35:43 25.6 C 11.67 g/m*3 25.6 C 0 km/h
95 31-07-2008 23:05:43 25.2 C 11.87 g/m*3 25.2 C 0 km/h
96 31-07-2008 23:35:43 24.9 C 11.9 g/m*3 24.9 C 0 km/h
97 01-08-2008 00:05:43 24.6 C 11.93 g/m*3 24.6 C 0 km/h
98 01-08-2008 00:35:44 24.5 C 12.53 g/m*3 24.5 C 0 km/h
99 01-08-2008 01:05:44 24.8 C 12.29 g/m*3 24.8 C 0 km/h
100 01-08-2008 01:35:44 24.6 C 12.38 g/m*3 24.6 C 0 km/h
Sensor: Nr:Datum:Temp:Abs-Feuchte:Windchill:Wind:
Aussen-T/F 101 01-08-2008 02:05:44 24.1 C 12.69 g/m*3 24.1 C 0 km/h
102 01-08-2008 02:35:44 23.8 C 13.34 g/m*3 23.8 C 0 km/h
103 01-08-2008 03:05:44 23.7 C 13.48 g/m*3 23.7 C 0 km/h
104 01-08-2008 03:35:44 23 C 13.57 g/m*3 23 C 0 km/h
105 01-08-2008 04:05:44 22.8 C 13.61 g/m*3 22.8 C 0 km/h
106 01-08-2008 04:35:44 22.6 C 13.66 g/m*3 22.6 C 0 km/h
107 01-08-2008 05:05:44 22.5 C 13.98 g/m*3 22.5 C 0 km/h
108 01-08-2008 05:35:44 22.1 C 14.05 g/m*3 22.1 C 0 km/h
109 01-08-2008 06:05:44 22.2 C 13.94 g/m*3 22.2 C 0 km/h
110 01-08-2008 06:35:44 22.4 C 13.9 g/m*3 22.4 C 0 km/h
111 01-08-2008 07:05:44 22.7 C 13.54 g/m*3 22.7 C 0 km/h
112 01-08-2008 07:35:44 23.4 C 13.67 g/m*3 23.4 C 0 km/h
113 01-08-2008 08:05:44 23.4 C 13.46 g/m*3 23.4 C 0 km/h
114 01-08-2008 08:35:44 23.7 C 13.69 g/m*3 23.7 C 0 km/h
115 01-08-2008 09:05:44 23.8 C 12.48 g/m*3 23.8 C 0 km/h
116 01-08-2008 09:35:44 24.5 C 12.76 g/m*3 24.5 C 0 km/h
117 01-08-2008 10:05:45 24.9 C 12.36 g/m*3 24.9 C 0 km/h
118 01-08-2008 10:35:45 26.3 C 11.64 g/m*3 26.3 C 0 km/h
119 01-08-2008 11:05:45 27.3 C 11.51 g/m*3 27.3 C 0 km/h
120 01-08-2008 11:35:45 27.7 C 10.7 g/m*3 27.7 C 0 km/h
121 01-08-2008 12:05:45 27.7 C 9.9 g/m*3 27.7 C 0 km/h
122 01-08-2008 12:35:45 28.2 C 8.8 g/m*3 28.2 C 0 km/h
123 01-08-2008 13:05:45 28.2 C 8.52 g/m*3 28.2 C 0 km/h
124 01-08-2008 13:35:45 26.5 C 9.26 g/m*3 26.5 C 0 km/h
125 01-08-2008 14:05:45 26.3 C 9.41 g/m*3 26.3 C 0 km/h
Sensor: Nr:Datum:Temp:Abs-Feuchte:Windchill:Wind:
Aussen-T/F 126 01-08-2008 14:35:45 26.1 C 9.55 g/m*3 26.1 C 0 km/h
127 01-08-2008 15:05:45 28.2 C 8.8 g/m*3 28.2 C 0 km/h
128 01-08-2008 15:35:45 29.5 C 8.85 g/m*3 29.5 C 0 km/h
129 01-08-2008 16:05:45 28.2 C 8.8 g/m*3 28.2 C 0 km/h
130 01-08-2008 16:35:45 29.3 C 8.47 g/m*3 29.3 C 0 km/h
131 01-08-2008 17:05:45 28.4 C 8.34 g/m*3 28.4 C 0 km/h
132 01-08-2008 17:35:45 26.8 C 8.14 g/m*3 26.8 C 0 km/h
133 01-08-2008 18:05:45 26.3 C 7.92 g/m*3 26.3 C 0 km/h
134 01-08-2008 18:35:45 26.4 C 7.97 g/m*3 26.4 C 0 km/h
135 01-08-2008 19:05:45 26.9 C 7.68 g/m*3 26.9 C 0 km/h
136 01-08-2008 19:35:46 27.2 C 7.03 g/m*3 27.2 C 0 km/h
137 01-08-2008 20:05:46 25.6 C 6.43 g/m*3 25.6 C 0 km/h
138 01-08-2008 20:35:46 24.4 C 6.45 g/m*3 24.4 C 0 km/h
139 01-08-2008 21:05:46 23.7 C 7.06 g/m*3 23.7 C 0 km/h
140 01-08-2008 21:35:46 23.1 C 7.44 g/m*3 23.1 C 0 km/h
141 01-08-2008 22:05:46 22.4 C 7.55 g/m*3 22.4 C 0 km/h
142 01-08-2008 22:35:46 22 C 7.96 g/m*3 22 C 0 km/h
143 01-08-2008 23:05:46 21.6 C 8.16 g/m*3 21.6 C 0 km/h
144 01-08-2008 23:35:46 20.6 C 8.59 g/m*3 20.6 C 0 km/h
145 02-08-2008 00:05:46 19.6 C 8.61 g/m*3 19.6 C 0 km/h
146 02-08-2008 00:35:46 19 C 8.8 g/m*3 19 C 0 km/h
147 02-08-2008 01:05:46 18.4 C 9.12 g/m*3 18.4 C 0 km/h
148 02-08-2008 01:35:46 18.1 C 9.27 g/m*3 18.1 C 0 km/h
149 02-08-2008 02:05:46 17.2 C 9.52 g/m*3 17.2 C 0 km/h
150 02-08-2008 02:35:46 16.9 C 9.78 g/m*3 16.9 C 0 km/h
Sensor: Nr:Datum:Temp:Abs-Feuchte:Windchill:Wind:
Aussen-T/F 151 02-08-2008 03:05:46 16.6 C 9.75 g/m*3 16.6 C 0 km/h
152 02-08-2008 03:35:46 16.6 C 9.75 g/m*3 16.6 C 0 km/h
153 02-08-2008 04:05:46 16.3 C 9.85 g/m*3 16.3 C 0 km/h
154 02-08-2008 04:35:46 16.6 C 9.89 g/m*3 16.6 C 0 km/h
155 02-08-2008 05:05:47 16.1 C 9.73 g/m*3 16.1 C 0 km/h
156 02-08-2008 05:35:47 15.7 C 9.9 g/m*3 15.7 C 0 km/h
157 02-08-2008 06:05:47 15.5 C 10.05 g/m*3 15.5 C 0 km/h
158 02-08-2008 06:35:47 16.1 C 10.28 g/m*3 16.1 C 0 km/h
159 02-08-2008 07:05:47 16.6 C 10.45 g/m*3 16.6 C 0 km/h
160 02-08-2008 07:35:47 17.2 C 10.4 g/m*3 17.2 C 0 km/h
161 02-08-2008 08:05:47 18 C 10.29 g/m*3 18 C 0 km/h
162 02-08-2008 08:35:47 18.5 C 10.13 g/m*3 18.5 C 0 km/h
163 02-08-2008 09:05:47 20 C 9.85 g/m*3 20 C 0 km/h
164 02-08-2008 09:35:47 20.4 C 10.26 g/m*3 20.4 C 0 km/h
165 02-08-2008 10:05:47 21.2 C 10.38 g/m*3 21.2 C 0 km/h
166 02-08-2008 10:35:47 22 C 8.93 g/m*3 22 C 0 km/h
167 02-08-2008 11:05:47 22.9 C 8.58 g/m*3 22.9 C 0 km/h
168 02-08-2008 11:35:47 23.6 C 8.08 g/m*3 23.6 C 0 km/h
169 02-08-2008 12:05:47 24.4 C 7.79 g/m*3 24.4 C 0 km/h
170 02-08-2008 12:35:47 25.6 C 7.38 g/m*3 25.6 C 0 km/h
171 02-08-2008 13:05:47 26.9 C 6.91 g/m*3 26.9 C 0 km/h
172 02-08-2008 13:35:47 27 C 6.95 g/m*3 27 C 0 km/h
173 02-08-2008 14:05:47 26.9 C 6.65 g/m*3 26.9 C 0 km/h
174 02-08-2008 14:35:48 26.5 C 7.01 g/m*3 26.5 C 0 km/h
175 02-08-2008 15:05:48 27 C 6.95 g/m*3 27 C 0 km/h
Sensor: Nr:Datum:Temp:Abs-Feuchte:Windchill:Wind:
Aussen-T/F 176 02-08-2008 15:35:48 27.3 C 6.8 g/m*3 27.3 C 0 km/h
177 02-08-2008 16:05:48 26.9 C 6.91 g/m*3 26.9 C 0 km/h
178 02-08-2008 16:35:48 23.3 C 9.62 g/m*3 23.3 C 0 km/h
179 02-08-2008 17:05:48 24.6 C 8.55 g/m*3 24.6 C 0 km/h
180 02-08-2008 17:35:02 24.9 C 8.24 g/m*3 24.9 C 0 km/h
181 02-08-2008 18:05:02 24.7 C 8.15 g/m*3 24.7 C 0 km/h
182 02-08-2008 18:35:02 24.1 C 8.53 g/m*3 24.1 C 0 km/h
183 02-08-2008 19:05:04 24.7 C 8.83 g/m*3 24.7 C 0 km/h
184 02-08-2008 19:35:02 24.1 C 8.1 g/m*3 24.1 C 0 km/h
185 02-08-2008 20:05:02 23.7 C 8.34 g/m*3 23.7 C 0 km/h
186 02-08-2008 20:35:01 22.8 C 8.94 g/m*3 22.8 C 0 km/h
187 02-08-2008 21:05:03 22 C 8.93 g/m*3 22 C 0 km/h
188 02-08-2008 21:35:03 21.8 C 9.4 g/m*3 21.8 C 0 km/h
189 02-08-2008 22:05:04 21.5 C 9.62 g/m*3 21.5 C 0 km/h
190 02-08-2008 22:35:03 21.2 C 10.01 g/m*3 21.2 C 0 km/h
191 02-08-2008 23:05:02 20.7 C 10.26 g/m*3 20.7 C 0 km/h
192 02-08-2008 23:35:02 20.6 C 10.74 g/m*3 20.6 C 0 km/h
193 03-08-2008 00:05:03 20.4 C 11.14 g/m*3 20.4 C 0 km/h
194 03-08-2008 00:35:03 19 C 12.06 g/m*3 19 C 0 km/h
195 03-08-2008 01:05:02 19.2 C 12.2 g/m*3 19.2 C 0 km/h
196 03-08-2008 01:35:03 19.6 C 11.99 g/m*3 19.6 C 0 km/h
197 03-08-2008 02:05:02 18.4 C 13.05 g/m*3 18.4 C 0 km/h
198 03-08-2008 02:35:03 18.4 C 13.68 g/m*3 18.4 C 0 km/h
199 03-08-2008 03:06:03 18.2 C 13.68 g/m*3 18.2 C 0 km/h
200 03-08-2008 03:36:02 18.2 C 13.68 g/m*3 18.2 C 0 km/h
Sensor: Nr:Datum:Temp:Abs-Feuchte:Windchill:Wind:
Aussen-T/F 201 03-08-2008 04:06:02 17.7 C 12.98 g/m*3 17.7 C 0 km/h
202 03-08-2008 04:36:02 17.6 C 13.05 g/m*3 17.6 C 0 km/h
203 03-08-2008 05:06:01 17.3 C 12.96 g/m*3 17.3 C 0 km/h
204 03-08-2008 05:36:01 17.5 C 13.27 g/m*3 17.5 C 0 km/h
205 03-08-2008 06:06:03 17.5 C 13.27 g/m*3 17.5 C 0 km/h
206 03-08-2008 06:36:03 17.5 C 13.27 g/m*3 17.5 C 0 km/h
207 03-08-2008 07:06:02 17.7 C 12.82 g/m*3 17.7 C 0 km/h
208 03-08-2008 07:36:02 17.8 C 11.99 g/m*3 17.8 C 0 km/h
209 03-08-2008 08:06:02 17.9 C 10.84 g/m*3 17.9 C 0 km/h
210 03-08-2008 08:36:02 18.3 C 10.79 g/m*3 18.3 C 0 km/h
211 03-08-2008 09:06:02 19 C 10.1 g/m*3 19 C 0 km/h
212 03-08-2008 09:36:02 19.5 C 10.41 g/m*3 19.5 C 0 km/h
213 03-08-2008 10:06:02 20.1 C 9.91 g/m*3 20.1 C 0 km/h
214 03-08-2008 10:36:02 21.1 C 9.95 g/m*3 21.1 C 0 km/h
215 03-08-2008 11:06:01 22 C 9.7 g/m*3 22 C 0 km/h
216 03-08-2008 11:36:01 23.6 C 9.57 g/m*3 23.6 C 0 km/h
217 03-08-2008 12:00:01 22.6 C 9.24 g/m*3 22.6 C 0 km/h
218 03-08-2008 12:12:02 22.6 C 9.04 g/m*3 22.6 C 0 km/h
219 03-08-2008 12:24:01 22.5 C 8.99 g/m*3 22.5 C 0 km/h
220 03-08-2008 12:36:02 23 C 8.84 g/m*3 23 C 0 km/h
221 03-08-2008 12:48:02 23.1 C 9.1 g/m*3 23.1 C 0 km/h
222 03-08-2008 13:00:02 23.4 C 9.04 g/m*3 23.4 C 0 km/h
223 03-08-2008 13:12:01 23.3 C 9.62 g/m*3 23.3 C 0 km/h
224 03-08-2008 13:24:02 23.2 C 9.15 g/m*3 23.2 C 0 km/h
225 03-08-2008 13:36:02 24.6 C 9.23 g/m*3 24.6 C 0 km/h
Sensor: Nr:Datum:Temp:Abs-Feuchte:Windchill:Wind:
Aussen-T/F 226 03-08-2008 13:48:02 26.7 C 8.86 g/m*3 26.7 C 0 km/h
227 03-08-2008 14:00:02 26.5 C 9.01 g/m*3 26.5 C 0 km/h
228 03-08-2008 14:12:02 26.7 C 8.86 g/m*3 26.7 C 0 km/h
229 03-08-2008 14:24:01 26.2 C 9.11 g/m*3 26.2 C 0 km/h
230 03-08-2008 14:36:02 27.2 C 9.11 g/m*3 27.2 C 0 km/h
231 03-08-2008 14:48:02 27.1 C 8.8 g/m*3 27.1 C 0 km/h
232 03-08-2008 15:00:03 27.4 C 8.95 g/m*3 27.4 C 0 km/h
233 03-08-2008 15:12:02 27.6 C 8.78 g/m*3 27.6 C 0 km/h
234 03-08-2008 15:24:03 26.9 C 8.7 g/m*3 26.9 C 0 km/h
235 03-08-2008 15:36:03 27 C 9.01 g/m*3 27 C 0 km/h
236 03-08-2008 15:48:02 27.3 C 9.16 g/m*3 27.3 C 0 km/h
237 03-08-2008 16:00:02 27.7 C 9.36 g/m*3 27.7 C 0 km/h
238 03-08-2008 16:12:02 27.9 C 9.2 g/m*3 27.9 C 0 km/h
239 03-08-2008 16:24:02 28 C 8.97 g/m*3 28 C 0 km/h
240 03-08-2008 16:36:01 27.2 C 9.11 g/m*3 27.2 C 0 km/h
241 03-08-2008 16:48:02 27.2 C 9.11 g/m*3 27.2 C 0 km/h
242 03-08-2008 17:00:02 28 C 8.97 g/m*3 28 C 0 km/h
243 03-08-2008 17:12:03 28 C 8.7 g/m*3 28 C 0 km/h
244 03-08-2008 17:48:02 28.4 C 8.62 g/m*3 28.4 C 0 km/h
245 03-08-2008 18:00:02 28.4 C 8.9 g/m*3 28.4 C 0 km/h
246 03-08-2008 18:12:03 28.8 C 8.81 g/m*3 28.8 C 0 km/h
247 03-08-2008 18:24:03 27.5 C 8.73 g/m*3 27.5 C 0 km/h
248 03-08-2008 18:36:02 27.2 C 8.85 g/m*3 27.2 C 0 km/h
249 03-08-2008 18:48:02 27.3 C 9.16 g/m*3 27.3 C 0 km/h
250 03-08-2008 19:00:02 27.1 C 9.06 g/m*3 27.1 C 0 km/h
Sensor: Nr:Datum:Temp:Abs-Feuchte:Windchill:Wind:
Aussen-T/F 251 03-08-2008 19:12:02 27.3 C 9.16 g/m*3 27.3 C 0 km/h
252 03-08-2008 19:24:02 26.6 C 9.31 g/m*3 26.6 C 0 km/h
253 03-08-2008 19:36:02 26.1 C 9.3 g/m*3 26.1 C 0 km/h
254 03-08-2008 19:48:02 25.8 C 9.63 g/m*3 25.8 C 0 km/h
255 03-08-2008 20:00:03 25.7 C 9.58 g/m*3 25.7 C 0 km/h
256 03-08-2008 20:12:02 25.3 C 9.83 g/m*3 25.3 C 0 km/h
257 03-08-2008 20:24:02 25 C 9.67 g/m*3 25 C 0 km/h
258 03-08-2008 20:36:02 24.8 C 10.02 g/m*3 24.8 C 0 km/h
259 03-08-2008 20:48:02 24.7 C 10.19 g/m*3 24.7 C 0 km/h
260 03-08-2008 21:00:02 24.5 C 10.3 g/m*3 24.5 C 0 km/h
261 03-08-2008 21:12:02 24.3 C 10.4 g/m*3 24.3 C 0 km/h
262 03-08-2008 21:24:02 24.1 C 10.94 g/m*3 24.1 C 0 km/h
263 03-08-2008 21:36:03 23.6 C 11.27 g/m*3 23.6 C 0 km/h
264 03-08-2008 21:48:02 22.6 C 12.46 g/m*3 22.6 C 0 km/h
265 03-08-2008 22:00:02 22.7 C 12.32 g/m*3 22.7 C 0 km/h
266 03-08-2008 22:12:03 22.9 C 12.06 g/m*3 22.9 C 0 km/h
267 03-08-2008 22:24:02 22.7 C 11.92 g/m*3 22.7 C 0 km/h
268 03-08-2008 22:37:04 22.6 C 11.85 g/m*3 22.6 C 0 km/h
269 03-08-2008 22:49:04 22.5 C 11.98 g/m*3 22.5 C 0 km/h
270 03-08-2008 23:01:05 22.2 C 11.98 g/m*3 22.2 C 0 km/h
271 03-08-2008 23:13:05 22.1 C 11.91 g/m*3 22.1 C 0 km/h
272 03-08-2008 23:25:05 22 C 12.23 g/m*3 22 C 0 km/h
273 03-08-2008 23:37:05 21.8 C 12.28 g/m*3 21.8 C 0 km/h
274 03-08-2008 23:49:05 21.9 C 12.35 g/m*3 21.9 C 0 km/h
275 04-08-2008 00:01:05 21.8 C 12.28 g/m*3 21.8 C 0 km/h
Sensor: Nr:Datum:Temp:Abs-Feuchte:Windchill:Wind:
Aussen-T/F 276 04-08-2008 00:13:05 21.8 C 12.28 g/m*3 21.8 C 0 km/h
277 04-08-2008 00:25:05 21.6 C 12.33 g/m*3 21.6 C 0 km/h
278 04-08-2008 00:37:05 21.3 C 12.3 g/m*3 21.3 C 0 km/h
279 04-08-2008 00:49:05 21.3 C 12.3 g/m*3 21.3 C 0 km/h
280 04-08-2008 01:01:05 21.6 C 12.14 g/m*3 21.6 C 0 km/h
281 04-08-2008 01:13:05 21.8 C 11.9 g/m*3 21.8 C 0 km/h
282 04-08-2008 01:25:05 22.1 C 11.91 g/m*3 22.1 C 0 km/h
283 04-08-2008 01:37:05 22.6 C 11.85 g/m*3 22.6 C 0 km/h
284 04-08-2008 01:49:05 22.9 C 11.65 g/m*3 22.9 C 0 km/h
285 04-08-2008 02:01:05 23.1 C 11.37 g/m*3 23.1 C 0 km/h
286 04-08-2008 02:13:05 23.3 C 11.29 g/m*3 23.3 C 0 km/h
287 04-08-2008 02:25:05 23.4 C 11.14 g/m*3 23.4 C 0 km/h
288 04-08-2008 02:37:05 23.5 C 11.21 g/m*3 23.5 C 0 km/h
289 04-08-2008 02:49:06 23.4 C 11.14 g/m*3 23.4 C 0 km/h
290 04-08-2008 03:01:06 23.3 C 11.29 g/m*3 23.3 C 0 km/h
291 04-08-2008 03:13:06 23.2 C 11.23 g/m*3 23.2 C 0 km/h
292 04-08-2008 03:25:06 23 C 11.3 g/m*3 23 C 0 km/h
293 04-08-2008 03:37:06 22.9 C 11.44 g/m*3 22.9 C 0 km/h
294 04-08-2008 03:49:06 21.5 C 12.63 g/m*3 21.5 C 0 km/h
295 04-08-2008 04:01:06 19.8 C 13.84 g/m*3 19.8 C 0 km/h
296 04-08-2008 04:13:06 19.5 C 14.1 g/m*3 19.5 C 0 km/h
297 04-08-2008 04:25:06 19.4 C 14.18 g/m*3 19.4 C 0 km/h
298 04-08-2008 04:37:06 19.1 C 13.93 g/m*3 19.1 C 0 km/h
299 04-08-2008 04:49:06 19.2 C 13.36 g/m*3 19.2 C 0 km/h
300 04-08-2008 05:01:06 18.9 C 13.28 g/m*3 18.9 C 0 km/h
Sensor: Nr:Datum:Temp:Abs-Feuchte:Windchill:Wind:
Aussen-T/F 301 04-08-2008 05:13:06 18.8 C 13.53 g/m*3 18.8 C 0 km/h
302 04-08-2008 05:25:06 18.4 C 13.21 g/m*3 18.4 C 0 km/h
303 04-08-2008 05:37:06 17.9 C 12.83 g/m*3 17.9 C 0 km/h
304 04-08-2008 05:49:06 17.7 C 12.82 g/m*3 17.7 C 0 km/h
305 04-08-2008 06:01:06 17.6 C 12.9 g/m*3 17.6 C 0 km/h
306 04-08-2008 06:13:06 17.5 C 12.97 g/m*3 17.5 C 0 km/h
307 04-08-2008 06:25:06 17.2 C 12.89 g/m*3 17.2 C 0 km/h
308 04-08-2008 06:37:06 16.9 C 12.8 g/m*3 16.9 C 0 km/h
309 04-08-2008 06:49:06 16.8 C 12.72 g/m*3 16.8 C 0 km/h
310 04-08-2008 07:01:07 16.6 C 12.71 g/m*3 16.6 C 0 km/h
311 04-08-2008 07:13:07 16.3 C 12.49 g/m*3 16.3 C 0 km/h
312 04-08-2008 07:25:07 16.4 C 12.56 g/m*3 16.4 C 0 km/h
313 04-08-2008 07:37:07 16.5 C 12.64 g/m*3 16.5 C 0 km/h
314 04-08-2008 07:49:07 16.5 C 12.64 g/m*3 16.5 C 0 km/h
315 04-08-2008 08:01:07 17 C 12.73 g/m*3 17 C 0 km/h
316 04-08-2008 08:13:07 17.2 C 12.59 g/m*3 17.2 C 0 km/h
317 04-08-2008 08:25:07 17.4 C 12.6 g/m*3 17.4 C 0 km/h
318 04-08-2008 08:37:07 17.9 C 12.98 g/m*3 17.9 C 0 km/h
319 04-08-2008 08:49:07 18.1 C 12.98 g/m*3 18.1 C 0 km/h
320 04-08-2008 09:01:07 18 C 12.75 g/m*3 18 C 0 km/h
321 04-08-2008 09:13:07 17.9 C 12.67 g/m*3 17.9 C 0 km/h
322 04-08-2008 09:25:04 18.1 C 12.36 g/m*3 18.1 C 0 km/h
323 04-08-2008 09:37:04 18.6 C 12.73 g/m*3 18.6 C 0 km/h
324 04-08-2008 09:49:02 19.1 C 12.62 g/m*3 19.1 C 0 km/h
325 04-08-2008 10:01:02 19.1 C 11.8 g/m*3 19.1 C 0 km/h
Sensor: Nr:Datum:Temp:Abs-Feuchte:Windchill:Wind:
Aussen-T/F 326 04-08-2008 10:13:02 19 C 11.41 g/m*3 19 C 0 km/h
327 04-08-2008 10:25:01 19.4 C 11.85 g/m*3 19.4 C 0 km/h
328 04-08-2008 10:37:02 19.9 C 11.34 g/m*3 19.9 C 0 km/h
329 04-08-2008 10:49:02 20.4 C 10.08 g/m*3 20.4 C 0 km/h
330 04-08-2008 11:01:03 20.7 C 9.9 g/m*3 20.7 C 0 km/h
331 04-08-2008 11:13:03 20.8 C 9.42 g/m*3 20.8 C 0 km/h
332 04-08-2008 11:25:02 21.4 C 9.19 g/m*3 21.4 C 0 km/h
333 04-08-2008 11:37:02 21.8 C 9.4 g/m*3 21.8 C 0 km/h
334 04-08-2008 11:49:02 22 C 8.73 g/m*3 22 C 0 km/h
335 04-08-2008 12:01:02 22.6 C 8.84 g/m*3 22.6 C 0 km/h
336 04-08-2008 12:13:02 22.9 C 8.38 g/m*3 22.9 C 0 km/h
337 04-08-2008 12:25:02 23.7 C 7.91 g/m*3 23.7 C 0 km/h
338 04-08-2008 12:37:02 23.1 C 7.65 g/m*3 23.1 C 0 km/h
339 04-08-2008 12:49:02 23.4 C 7.57 g/m*3 23.4 C 0 km/h
340 04-08-2008 13:01:02 24.4 C 7.12 g/m*3 24.4 C 0 km/h
341 04-08-2008 13:13:02 24 C 6.74 g/m*3 24 C 0 km/h
342 04-08-2008 13:25:02 24 C 6.53 g/m*3 24 C 0 km/h
343 04-08-2008 13:37:02 24.5 C 6.94 g/m*3 24.5 C 0 km/h
344 04-08-2008 13:49:03 24.8 C 6.37 g/m*3 24.8 C 0 km/h
345 04-08-2008 14:01:03 25.7 C 6.46 g/m*3 25.7 C 0 km/h
346 04-08-2008 14:13:03 25.4 C 7.06 g/m*3 25.4 C 0 km/h
347 04-08-2008 14:25:03 24.8 C 7.97 g/m*3 24.8 C 0 km/h
348 04-08-2008 14:37:02 24.4 C 8.23 g/m*3 24.4 C 0 km/h
349 04-08-2008 14:49:02 25.3 C 7.26 g/m*3 25.3 C 0 km/h
350 04-08-2008 15:01:01 25.2 C 6.52 g/m*3 25.2 C 0 km/h
Sensor: Nr:Datum:Temp:Abs-Feuchte:Windchill:Wind:
Aussen-T/F 351 04-08-2008 15:13:01 24.7 C 6.34 g/m*3 24.7 C 0 km/h
352 04-08-2008 15:25:02 25.1 C 6.48 g/m*3 25.1 C 0 km/h
353 04-08-2008 15:37:01 25.9 C 6.29 g/m*3 25.9 C 0 km/h
354 04-08-2008 15:49:02 27.1 C 5.69 g/m*3 27.1 C 0 km/h
355 04-08-2008 16:01:02 26.2 C 5.66 g/m*3 26.2 C 0 km/h
356 04-08-2008 16:13:02 26.9 C 5.63 g/m*3 26.9 C 0 km/h
357 04-08-2008 16:25:02 26.8 C 5.6 g/m*3 26.8 C 0 km/h
358 04-08-2008 16:37:02 25.8 C 5.3 g/m*3 25.8 C 0 km/h
359 04-08-2008 16:49:03 26.3 C 6.19 g/m*3 26.3 C 0 km/h
360 04-08-2008 17:01:02 27.2 C 5.99 g/m*3 27.2 C 0 km/h
361 04-08-2008 17:13:02 26.3 C 6.19 g/m*3 26.3 C 0 km/h
362 04-08-2008 17:25:03 26.7 C 5.57 g/m*3 26.7 C 0 km/h
363 04-08-2008 17:37:02 26.2 C 5.42 g/m*3 26.2 C 0 km/h
364 04-08-2008 17:49:02 26.3 C 5.2 g/m*3 26.3 C 0 km/h
365 04-08-2008 18:01:02 26.5 C 5.51 g/m*3 26.5 C 0 km/h
366 04-08-2008 18:13:02 26.6 C 5.54 g/m*3 26.6 C 0 km/h
367 04-08-2008 18:25:02 25.9 C 5.57 g/m*3 25.9 C 0 km/h
368 04-08-2008 18:37:02 26.1 C 5.63 g/m*3 26.1 C 0 km/h
369 04-08-2008 18:49:01 25.7 C 5.99 g/m*3 25.7 C 0 km/h
370 04-08-2008 19:01:02 26 C 5.6 g/m*3 26 C 0 km/h
371 04-08-2008 19:13:02 25.9 C 6.29 g/m*3 25.9 C 0 km/h
372 04-08-2008 19:25:01 26.1 C 6.12 g/m*3 26.1 C 0 km/h
373 04-08-2008 19:37:02 26.1 C 5.88 g/m*3 26.1 C 0 km/h
374 04-08-2008 19:49:02 25.4 C 5.89 g/m*3 25.4 C 0 km/h
375 04-08-2008 20:01:02 24.5 C 5.82 g/m*3 24.5 C 0 km/h
Sensor: Nr:Datum:Temp:Abs-Feuchte:Windchill:Wind:
Aussen-T/F 376 04-08-2008 20:13:02 23.9 C 6.06 g/m*3 23.9 C 0 km/h
377 04-08-2008 20:25:02 23.4 C 6.1 g/m*3 23.4 C 0 km/h
378 04-08-2008 20:37:02 23.1 C 6.41 g/m*3 23.1 C 0 km/h
379 04-08-2008 20:49:02 22.5 C 6.99 g/m*3 22.5 C 0 km/h
380 04-08-2008 21:01:01 21.8 C 6.91 g/m*3 21.8 C 0 km/h
381 04-08-2008 21:13:01 21.5 C 7.17 g/m*3 21.5 C 0 km/h
382 04-08-2008 21:25:02 21 C 7.14 g/m*3 21 C 0 km/h
383 04-08-2008 21:37:01 20.6 C 7.16 g/m*3 20.6 C 0 km/h
384 04-08-2008 21:49:03 20.4 C 7.25 g/m*3 20.4 C 0 km/h
385 04-08-2008 22:01:02 20.3 C 7.39 g/m*3 20.3 C 0 km/h
386 04-08-2008 22:13:02 19.9 C 7.56 g/m*3 19.9 C 0 km/h
387 04-08-2008 22:25:03 19.5 C 7.55 g/m*3 19.5 C 0 km/h
388 04-08-2008 22:38:13 19.3 C 7.8 g/m*3 19.3 C 0 km/h
389 04-08-2008 22:50:13 19.2 C 7.75 g/m*3 19.2 C 0 km/h
390 04-08-2008 23:02:13 19.2 C 7.91 g/m*3 19.2 C 0 km/h
391 04-08-2008 23:14:13 19.3 C 7.8 g/m*3 19.3 C 0 km/h
392 04-08-2008 23:26:13 19.1 C 8.03 g/m*3 19.1 C 0 km/h
393 04-08-2008 23:38:13 18.9 C 8.1 g/m*3 18.9 C 0 km/h
394 04-08-2008 23:50:13 18.5 C 8.23 g/m*3 18.5 C 0 km/h
395 05-08-2008 00:02:13 18.4 C 8.18 g/m*3 18.4 C 0 km/h
396 05-08-2008 00:14:14 18.2 C 8.24 g/m*3 18.2 C 0 km/h
397 05-08-2008 00:26:14 18.1 C 8.34 g/m*3 18.1 C 0 km/h
398 05-08-2008 00:38:14 17.7 C 8.75 g/m*3 17.7 C 0 km/h
399 05-08-2008 00:50:14 17.4 C 8.6 g/m*3 17.4 C 0 km/h
400 05-08-2008 01:02:14 17.2 C 8.64 g/m*3 17.2 C 0 km/h
Sensor: Nr:Datum:Temp:Abs-Feuchte:Windchill:Wind:
Aussen-T/F 401 05-08-2008 01:14:14 16.8 C 8.86 g/m*3 16.8 C 0 km/h
402 05-08-2008 01:26:14 16.6 C 8.76 g/m*3 16.6 C 0 km/h
403 05-08-2008 01:38:14 16.4 C 8.93 g/m*3 16.4 C 0 km/h
404 05-08-2008 01:50:14 16.2 C 8.96 g/m*3 16.2 C 0 km/h
405 05-08-2008 02:02:14 16 C 8.99 g/m*3 16 C 0 km/h
406 05-08-2008 02:14:14 15.8 C 9.02 g/m*3 15.8 C 0 km/h
407 05-08-2008 02:26:14 15.6 C 8.91 g/m*3 15.6 C 0 km/h
408 05-08-2008 02:38:14 15.5 C 9.12 g/m*3 15.5 C 0 km/h
409 05-08-2008 02:50:14 15.4 C 8.8 g/m*3 15.4 C 0 km/h
410 05-08-2008 03:02:14 15.2 C 8.44 g/m*3 15.2 C 0 km/h
411 05-08-2008 03:14:14 15.3 C 8.62 g/m*3 15.3 C 0 km/h
412 05-08-2008 03:26:14 15.1 C 8.39 g/m*3 15.1 C 0 km/h
413 05-08-2008 03:38:14 15 C 8.59 g/m*3 15 C 0 km/h
414 05-08-2008 03:50:14 14.8 C 8.74 g/m*3 14.8 C 0 km/h
415 05-08-2008 04:02:14 14.7 C 8.56 g/m*3 14.7 C 0 km/h
416 05-08-2008 04:14:14 14.7 C 8.18 g/m*3 14.7 C 0 km/h
417 05-08-2008 04:26:15 14.5 C 8.58 g/m*3 14.5 C 0 km/h
418 05-08-2008 04:38:15 14.2 C 8.55 g/m*3 14.2 C 0 km/h
419 05-08-2008 04:50:15 14.2 C 8.43 g/m*3 14.2 C 0 km/h
420 05-08-2008 05:02:15 14.1 C 8.25 g/m*3 14.1 C 0 km/h
421 05-08-2008 05:14:15 14 C 8.32 g/m*3 14 C 0 km/h
422 05-08-2008 05:26:15 13.9 C 8.63 g/m*3 13.9 C 0 km/h
423 05-08-2008 05:38:15 13.7 C 8.64 g/m*3 13.7 C 0 km/h
424 05-08-2008 05:50:15 13.5 C 8.54 g/m*3 13.5 C 0 km/h
425 05-08-2008 06:02:15 13.5 C 8.54 g/m*3 13.5 C 0 km/h
Sensor: Nr:Datum:Temp:Abs-Feuchte:Windchill:Wind:
Aussen-T/F 426 05-08-2008 06:14:15 13.4 C 8.6 g/m*3 13.4 C 0 km/h
427 05-08-2008 06:26:15 13.4 C 8.6 g/m*3 13.4 C 0 km/h
428 05-08-2008 06:38:15 13.4 C 8.6 g/m*3 13.4 C 0 km/h
429 05-08-2008 06:50:15 13.5 C 8.66 g/m*3 13.5 C 0 km/h
430 05-08-2008 07:02:15 13.6 C 8.71 g/m*3 13.6 C 0 km/h
431 05-08-2008 07:14:15 13.7 C 8.76 g/m*3 13.7 C 0 km/h
432 05-08-2008 07:26:15 13.9 C 8.75 g/m*3 13.9 C 0 km/h
433 05-08-2008 07:38:15 14.2 C 8.67 g/m*3 14.2 C 0 km/h
434 05-08-2008 07:50:15 14.4 C 8.53 g/m*3 14.4 C 0 km/h
435 05-08-2008 08:02:15 14.6 C 8.63 g/m*3 14.6 C 0 km/h
436 05-08-2008 08:14:15 14.8 C 8.61 g/m*3 14.8 C 0 km/h
437 05-08-2008 08:26:15 15 C 8.46 g/m*3 15 C 0 km/h
438 05-08-2008 08:38:03 15.4 C 8.54 g/m*3 15.4 C 0 km/h
439 05-08-2008 08:50:03 15.6 C 8.38 g/m*3 15.6 C 0 km/h
440 05-08-2008 09:02:03 15.7 C 8.56 g/m*3 15.7 C 0 km/h
441 05-08-2008 09:14:03 16.1 C 8.5 g/m*3 16.1 C 0 km/h
442 05-08-2008 09:26:02 16.4 C 8.51 g/m*3 16.4 C 0 km/h
443 05-08-2008 09:38:02 16.8 C 8.58 g/m*3 16.8 C 0 km/h
444 05-08-2008 09:50:02 17.2 C 8.49 g/m*3 17.2 C 0 km/h
445 05-08-2008 10:02:03 17.9 C 8.7 g/m*3 17.9 C 0 km/h
446 05-08-2008 10:14:03 18 C 8.45 g/m*3 18 C 0 km/h
447 05-08-2008 10:26:02 18.4 C 8.49 g/m*3 18.4 C 0 km/h
448 05-08-2008 10:38:03 19.1 C 8.52 g/m*3 19.1 C 0 km/h
449 05-08-2008 10:50:03 19.8 C 8.37 g/m*3 19.8 C 0 km/h
450 05-08-2008 11:02:02 20.1 C 8.17 g/m*3 20.1 C 0 km/h
Sensor: Nr:Datum:Temp:Abs-Feuchte:Windchill:Wind:
Aussen-T/F 451 05-08-2008 11:14:03 20.5 C 8.19 g/m*3 20.5 C 0 km/h
452 05-08-2008 11:26:02 21.1 C 8.29 g/m*3 21.1 C 0 km/h
453 05-08-2008 11:38:03 22.7 C 7.88 g/m*3 22.7 C 0 km/h
454 05-08-2008 11:50:02 22.2 C 8.05 g/m*3 22.2 C 0 km/h
455 05-08-2008 12:02:02 22.7 C 8.28 g/m*3 22.7 C 0 km/h
456 05-08-2008 12:14:02 23.8 C 7.96 g/m*3 23.8 C 0 km/h
457 05-08-2008 12:26:02 24 C 7.83 g/m*3 24 C 0 km/h
458 05-08-2008 12:38:02 24.5 C 7.83 g/m*3 24.5 C 0 km/h
459 05-08-2008 12:50:01 24.3 C 7.52 g/m*3 24.3 C 0 km/h
460 05-08-2008 13:02:03 24.8 C 7.28 g/m*3 24.8 C 0 km/h
461 05-08-2008 13:14:03 24.6 C 7.2 g/m*3 24.6 C 0 km/h
462 05-08-2008 13:26:02 24.4 C 7.34 g/m*3 24.4 C 0 km/h
463 05-08-2008 13:38:02 25 C 7.37 g/m*3 25 C 0 km/h
464 05-08-2008 13:50:01 25.2 C 7.45 g/m*3 25.2 C 0 km/h
465 05-08-2008 14:02:02 25.9 C 7.51 g/m*3 25.9 C 0 km/h
466 05-08-2008 14:14:02 26.5 C 7.01 g/m*3 26.5 C 0 km/h
467 05-08-2008 14:26:02 26.9 C 6.65 g/m*3 26.9 C 0 km/h
468 05-08-2008 14:38:02 26.8 C 6.87 g/m*3 26.8 C 0 km/h
469 05-08-2008 14:50:01 27.5 C 6.61 g/m*3 27.5 C 0 km/h
470 05-08-2008 15:02:02 26.9 C 6.65 g/m*3 26.9 C 0 km/h
471 05-08-2008 15:14:02 26.7 C 6.58 g/m*3 26.7 C 0 km/h
472 05-08-2008 15:26:02 26.2 C 7.14 g/m*3 26.2 C 0 km/h
473 05-08-2008 15:38:01 25.8 C 7.22 g/m*3 25.8 C 0 km/h
474 05-08-2008 15:50:01 26.3 C 7.18 g/m*3 26.3 C 0 km/h
475 05-08-2008 16:02:02 26.6 C 7.05 g/m*3 26.6 C 0 km/h
Sensor: Nr:Datum:Temp:Abs-Feuchte:Windchill:Wind:
Aussen-T/F 476 05-08-2008 16:14:02 26.6 C 7.3 g/m*3 26.6 C 0 km/h
477 05-08-2008 16:26:01 27.6 C 7.18 g/m*3 27.6 C 0 km/h
478 05-08-2008 16:38:02 28.5 C 6.99 g/m*3 28.5 C 0 km/h
479 05-08-2008 16:50:02 28.6 C 7.03 g/m*3 28.6 C 0 km/h
480 05-08-2008 17:02:02 29.1 C 6.35 g/m*3 29.1 C 0 km/h
481 05-08-2008 17:14:02 29.6 C 6.53 g/m*3 29.6 C 0 km/h
482 05-08-2008 17:26:02 27.9 C 6.76 g/m*3 27.9 C 0 km/h
483 05-08-2008 17:38:02 27.2 C 6.77 g/m*3 27.2 C 0 km/h
484 05-08-2008 17:50:02 28.3 C 6.91 g/m*3 28.3 C 0 km/h
485 05-08-2008 18:02:02 28.8 C 6.53 g/m*3 28.8 C 0 km/h
486 05-08-2008 18:14:02 27.1 C 6.47 g/m*3 27.1 C 0 km/h
487 05-08-2008 18:26:02 26.7 C 7.59 g/m*3 26.7 C 0 km/h
488 05-08-2008 18:38:02 26.6 C 8.05 g/m*3 26.6 C 0 km/h
489 05-08-2008 18:50:02 26.2 C 7.88 g/m*3 26.2 C 0 km/h
490 05-08-2008 19:02:01 25.8 C 7.7 g/m*3 25.8 C 0 km/h
491 05-08-2008 19:14:01 25.9 C 7.99 g/m*3 25.9 C 0 km/h
492 05-08-2008 19:26:02 25.6 C 8.09 g/m*3 25.6 C 0 km/h
493 05-08-2008 19:38:01 25.1 C 8.33 g/m*3 25.1 C 0 km/h
494 05-08-2008 19:50:01 24.7 C 8.37 g/m*3 24.7 C 0 km/h
495 05-08-2008 20:02:02 24.7 C 8.37 g/m*3 24.7 C 0 km/h
496 05-08-2008 20:14:02 24.1 C 8.1 g/m*3 24.1 C 0 km/h
497 05-08-2008 20:26:02 23.5 C 8.25 g/m*3 23.5 C 0 km/h
498 05-08-2008 20:38:01 22.9 C 8.58 g/m*3 22.9 C 0 km/h
499 05-08-2008 20:50:02 22.4 C 8.34 g/m*3 22.4 C 0 km/h
500 05-08-2008 21:02:03 21.9 C 8.68 g/m*3 21.9 C 0 km/h
Sensor: Nr:Datum:Temp:Abs-Feuchte:Windchill:Wind:
Aussen-T/F 501 05-08-2008 21:14:03 21.5 C 8.67 g/m*3 21.5 C 0 km/h
502 05-08-2008 21:26:03 21.2 C 8.52 g/m*3 21.2 C 0 km/h
503 05-08-2008 21:38:02 21 C 8.43 g/m*3 21 C 0 km/h
504 05-08-2008 21:50:03 20.9 C 9.11 g/m*3 20.9 C 0 km/h
505 05-08-2008 22:02:02 21 C 8.98 g/m*3 21 C 0 km/h
506 05-08-2008 22:14:02 20.8 C 9.05 g/m*3 20.8 C 0 km/h
507 05-08-2008 22:26:03 20.6 C 9.13 g/m*3 20.6 C 0 km/h
508 05-08-2008 22:39:03 20.3 C 9.15 g/m*3 20.3 C 0 km/h
509 05-08-2008 22:51:03 20 C 8.81 g/m*3 20 C 0 km/h
510 05-08-2008 23:03:03 19.9 C 8.93 g/m*3 19.9 C 0 km/h
511 05-08-2008 23:15:03 19.5 C 8.89 g/m*3 19.5 C 0 km/h
512 05-08-2008 23:27:03 19.3 C 8.79 g/m*3 19.3 C 0 km/h
513 05-08-2008 23:39:03 19.2 C 9.07 g/m*3 19.2 C 0 km/h
514 05-08-2008 23:51:03 18.9 C 9.23 g/m*3 18.9 C 0 km/h
515 06-08-2008 00:03:04 18.9 C 9.23 g/m*3 18.9 C 0 km/h
516 06-08-2008 00:15:04 18.7 C 9.13 g/m*3 18.7 C 0 km/h
517 06-08-2008 00:27:04 18.7 C 9.29 g/m*3 18.7 C 0 km/h
518 06-08-2008 00:39:04 18.6 C 9.39 g/m*3 18.6 C 0 km/h
519 06-08-2008 00:51:04 18.4 C 9.28 g/m*3 18.4 C 0 km/h
520 06-08-2008 01:03:04 18.3 C 9.22 g/m*3 18.3 C 0 km/h
521 06-08-2008 01:15:04 18.1 C 9.43 g/m*3 18.1 C 0 km/h
522 06-08-2008 01:27:04 17.9 C 9.47 g/m*3 17.9 C 0 km/h
523 06-08-2008 01:39:04 17.9 C 9.62 g/m*3 17.9 C 0 km/h
524 06-08-2008 01:51:04 17.7 C 9.66 g/m*3 17.7 C 0 km/h
525 06-08-2008 02:03:04 17.6 C 9.6 g/m*3 17.6 C 0 km/h
Sensor: Nr:Datum:Temp:Abs-Feuchte:Windchill:Wind:
Aussen-T/F 526 06-08-2008 02:15:04 17.5 C 9.54 g/m*3 17.5 C 0 km/h
527 06-08-2008 02:27:04 17.4 C 9.48 g/m*3 17.4 C 0 km/h
528 06-08-2008 02:39:04 17.5 C 9.69 g/m*3 17.5 C 0 km/h
529 06-08-2008 02:51:04 17.6 C 9.6 g/m*3 17.6 C 0 km/h
530 06-08-2008 03:03:04 17.4 C 9.63 g/m*3 17.4 C 0 km/h
531 06-08-2008 03:15:04 17 C 9.41 g/m*3 17 C 0 km/h
532 06-08-2008 03:27:04 16.8 C 9.72 g/m*3 16.8 C 0 km/h
533 06-08-2008 03:39:04 16.7 C 9.81 g/m*3 16.7 C 0 km/h
534 06-08-2008 03:51:05 16.6 C 9.75 g/m*3 16.6 C 0 km/h
535 06-08-2008 04:03:05 16.6 C 9.75 g/m*3 16.6 C 0 km/h
536 06-08-2008 04:15:05 16.6 C 9.75 g/m*3 16.6 C 0 km/h
537 06-08-2008 04:27:05 16.4 C 9.77 g/m*3 16.4 C 0 km/h
538 06-08-2008 04:39:05 16.2 C 9.79 g/m*3 16.2 C 0 km/h
539 06-08-2008 04:51:05 16 C 9.81 g/m*3 16 C 0 km/h
540 06-08-2008 05:03:05 15.9 C 9.89 g/m*3 15.9 C 0 km/h
541 06-08-2008 05:15:05 15.7 C 9.77 g/m*3 15.7 C 0 km/h
542 06-08-2008 05:27:05 15.6 C 9.84 g/m*3 15.6 C 0 km/h
543 06-08-2008 05:39:05 15.4 C 9.72 g/m*3 15.4 C 0 km/h
544 06-08-2008 05:51:05 15.3 C 9.79 g/m*3 15.3 C 0 km/h
545 06-08-2008 06:03:05 15.2 C 9.73 g/m*3 15.2 C 0 km/h
546 06-08-2008 06:15:05 15.2 C 9.99 g/m*3 15.2 C 0 km/h
547 06-08-2008 06:27:05 15.1 C 9.93 g/m*3 15.1 C 0 km/h
548 06-08-2008 06:39:05 14.9 C 9.94 g/m*3 14.9 C 0 km/h
549 06-08-2008 06:51:02 14.9 C 9.94 g/m*3 14.9 C 0 km/h
550 06-08-2008 07:03:01 15.2 C 10.12 g/m*3 15.2 C 0 km/h
Sensor: Nr:Datum:Temp:Abs-Feuchte:Windchill:Wind:
Aussen-T/F 551 06-08-2008 07:15:02 15.3 C 10.19 g/m*3 15.3 C 0 km/h
552 06-08-2008 07:27:02 15.5 C 10.31 g/m*3 15.5 C 0 km/h
553 06-08-2008 07:39:01 15.6 C 10.24 g/m*3 15.6 C 0 km/h
554 06-08-2008 07:51:02 15.8 C 10.36 g/m*3 15.8 C 0 km/h
555 06-08-2008 08:03:01 15.9 C 10.29 g/m*3 15.9 C 0 km/h
556 06-08-2008 08:15:02 16.2 C 10.34 g/m*3 16.2 C 0 km/h
557 06-08-2008 08:27:02 16.4 C 10.33 g/m*3 16.4 C 0 km/h
558 06-08-2008 08:39:01 16.6 C 10.45 g/m*3 16.6 C 0 km/h
559 06-08-2008 08:51:01 16.9 C 10.36 g/m*3 16.9 C 0 km/h
560 06-08-2008 09:03:01 17.3 C 10.16 g/m*3 17.3 C 0 km/h
561 06-08-2008 09:15:02 17.8 C 10.47 g/m*3 17.8 C 0 km/h
562 06-08-2008 09:27:02 18.3 C 10.32 g/m*3 18.3 C 0 km/h
563 06-08-2008 09:39:01 18.9 C 10.69 g/m*3 18.9 C 0 km/h
564 06-08-2008 09:51:01 19.3 C 10.62 g/m*3 19.3 C 0 km/h
565 06-08-2008 10:03:01 20 C 10.54 g/m*3 20 C 0 km/h
566 06-08-2008 10:15:01 20.9 C 10.56 g/m*3 20.9 C 0 km/h
567 06-08-2008 10:27:01 21.7 C 10.11 g/m*3 21.7 C 0 km/h
568 06-08-2008 10:39:01 22.2 C 10.01 g/m*3 22.2 C 0 km/h
569 06-08-2008 10:51:01 23.2 C 9.98 g/m*3 23.2 C 0 km/h
570 06-08-2008 11:03:02 23.7 C 10.27 g/m*3 23.7 C 0 km/h
571 06-08-2008 11:15:01 24.3 C 9.52 g/m*3 24.3 C 0 km/h
572 06-08-2008 11:27:01 25.1 C 9.26 g/m*3 25.1 C 0 km/h
573 06-08-2008 11:39:02 25.8 C 9.39 g/m*3 25.8 C 0 km/h
574 06-08-2008 11:51:02 26.1 C 9.06 g/m*3 26.1 C 0 km/h
575 06-08-2008 12:03:02 26.9 C 9.47 g/m*3 26.9 C 0 km/h
Sensor: Nr:Datum:Temp:Abs-Feuchte:Windchill:Wind:
Aussen-T/F 576 06-08-2008 12:15:01 27.1 C 8.8 g/m*3 27.1 C 0 km/h
577 06-08-2008 12:27:01 27.6 C 9.04 g/m*3 27.6 C 0 km/h
578 06-08-2008 12:39:02 28.1 C 8.75 g/m*3 28.1 C 0 km/h
579 06-08-2008 12:51:02 27.8 C 8.61 g/m*3 27.8 C 0 km/h
580 06-08-2008 13:03:02 28.9 C 8.86 g/m*3 28.9 C 0 km/h
581 06-08-2008 13:15:02 30 C 8.19 g/m*3 30 C 0 km/h
582 06-08-2008 13:27:02 30.6 C 8.14 g/m*3 30.6 C 0 km/h
583 06-08-2008 13:39:02 30.6 C 7.83 g/m*3 30.6 C 0 km/h
584 06-08-2008 13:51:02 30.9 C 7.96 g/m*3 30.9 C 0 km/h
585 06-08-2008 14:03:01 31 C 8 g/m*3 31 C 0 km/h
586 06-08-2008 14:15:02 31.1 C 8.04 g/m*3 31.1 C 0 km/h
587 06-08-2008 14:27:02 30.7 C 8.5 g/m*3 30.7 C 0 km/h
588 06-08-2008 14:39:02 31.3 C 7.81 g/m*3 31.3 C 0 km/h
589 06-08-2008 14:51:02 31.5 C 7.56 g/m*3 31.5 C 0 km/h
590 06-08-2008 15:03:02 32.1 C 7.47 g/m*3 32.1 C 0 km/h
591 06-08-2008 15:15:02 32.3 C 6.86 g/m*3 32.3 C 0 km/h
592 06-08-2008 15:27:03 32 C 7.09 g/m*3 32 C 0 km/h
593 06-08-2008 15:39:02 32.5 C 6.93 g/m*3 32.5 C 0 km/h
594 06-08-2008 15:51:02 32.7 C 7.01 g/m*3 32.7 C 0 km/h
595 06-08-2008 16:03:02 33 C 7.12 g/m*3 33 C 0 km/h
596 06-08-2008 16:15:02 33.2 C 7.2 g/m*3 33.2 C 0 km/h
597 06-08-2008 16:27:02 33.5 C 7.31 g/m*3 33.5 C 0 km/h
598 06-08-2008 16:39:02 33.6 C 7.35 g/m*3 33.6 C 0 km/h
599 06-08-2008 16:51:02 33.7 C 7.39 g/m*3 33.7 C 0 km/h
600 06-08-2008 17:03:02 33.9 C 7.46 g/m*3 33.9 C 0 km/h
Sensor: Nr:Datum:Temp:Abs-Feuchte:Windchill:Wind:
Aussen-T/F 601 06-08-2008 17:15:02 33.9 C 7.46 g/m*3 33.9 C 0 km/h
602 06-08-2008 17:27:02 33.6 C 7.35 g/m*3 33.6 C 0 km/h
603 06-08-2008 17:39:02 33.7 C 7.39 g/m*3 33.7 C 0 km/h
604 06-08-2008 17:51:02 33.8 C 7.43 g/m*3 33.8 C 0 km/h
605 06-08-2008 18:03:02 34 C 7.5 g/m*3 34 C 0 km/h
606 06-08-2008 18:15:02 34.2 C 7.58 g/m*3 34.2 C 0 km/h
607 06-08-2008 18:27:02 33.9 C 7.46 g/m*3 33.9 C 0 km/h
608 06-08-2008 18:39:02 34 C 7.5 g/m*3 34 C 0 km/h
609 06-08-2008 18:51:02 33.9 C 7.46 g/m*3 33.9 C 0 km/h
610 06-08-2008 19:03:01 33.9 C 7.46 g/m*3 33.9 C 0 km/h
611 06-08-2008 19:15:02 33.3 C 7.23 g/m*3 33.3 C 0 km/h
612 06-08-2008 19:27:02 33.3 C 7.59 g/m*3 33.3 C 0 km/h
613 06-08-2008 19:39:02 32.7 C 7.36 g/m*3 32.7 C 0 km/h
614 06-08-2008 19:51:02 31.6 C 8.59 g/m*3 31.6 C 0 km/h
615 06-08-2008 20:03:02 30.6 C 9.4 g/m*3 30.6 C 0 km/h
616 06-08-2008 20:15:02 30.1 C 9.45 g/m*3 30.1 C 0 km/h
617 06-08-2008 20:27:03 29.5 C 9.44 g/m*3 29.5 C 0 km/h
618 06-08-2008 20:39:02 28.9 C 9.43 g/m*3 28.9 C 0 km/h
619 06-08-2008 20:51:02 28.4 C 9.45 g/m*3 28.4 C 0 km/h
620 06-08-2008 21:03:02 27.8 C 9.15 g/m*3 27.8 C 0 km/h
621 06-08-2008 21:15:03 27.3 C 9.16 g/m*3 27.3 C 0 km/h
622 06-08-2008 21:27:03 27 C 9.01 g/m*3 27 C 0 km/h
623 06-08-2008 21:39:02 26.7 C 9.11 g/m*3 26.7 C 0 km/h
624 06-08-2008 21:51:01 26.6 C 9.31 g/m*3 26.6 C 0 km/h
625 06-08-2008 22:03:01 26.6 C 9.06 g/m*3 26.6 C 0 km/h
Sensor: Nr:Datum:Temp:Abs-Feuchte:Windchill:Wind:
Aussen-T/F 626 06-08-2008 22:15:01 26.4 C 9.21 g/m*3 26.4 C 0 km/h
627 06-08-2008 22:27:01 26 C 9.49 g/m*3 26 C 0 km/h
628 06-08-2008 22:40:02 25.8 C 9.39 g/m*3 25.8 C 0 km/h
629 06-08-2008 22:52:02 25.6 C 9.28 g/m*3 25.6 C 0 km/h
630 06-08-2008 23:04:02 25.1 C 9.26 g/m*3 25.1 C 0 km/h
631 06-08-2008 23:16:02 24.8 C 9.79 g/m*3 24.8 C 0 km/h
632 06-08-2008 23:28:02 24.5 C 10.07 g/m*3 24.5 C 0 km/h
633 06-08-2008 23:40:02 24.1 C 9.85 g/m*3 24.1 C 0 km/h
634 06-08-2008 23:52:02 24 C 10.01 g/m*3 24 C 0 km/h
635 07-08-2008 00:04:02 23.7 C 9.84 g/m*3 23.7 C 0 km/h
636 07-08-2008 00:16:02 23.6 C 10.21 g/m*3 23.6 C 0 km/h
637 07-08-2008 00:28:02 23.3 C 10.25 g/m*3 23.3 C 0 km/h
638 07-08-2008 00:40:02 23 C 10.28 g/m*3 23 C 0 km/h
639 07-08-2008 00:52:02 22.7 C 10.51 g/m*3 22.7 C 0 km/h
640 07-08-2008 01:04:02 22.5 C 10.59 g/m*3 22.5 C 0 km/h
641 07-08-2008 01:16:02 22.3 C 10.66 g/m*3 22.3 C 0 km/h
642 07-08-2008 01:28:02 22.1 C 10.74 g/m*3 22.1 C 0 km/h
643 07-08-2008 01:40:02 21.9 C 11 g/m*3 21.9 C 0 km/h
644 07-08-2008 01:52:03 21.7 C 11.06 g/m*3 21.7 C 0 km/h
645 07-08-2008 02:04:03 21.4 C 11.06 g/m*3 21.4 C 0 km/h
646 07-08-2008 02:16:03 21.3 C 11 g/m*3 21.3 C 0 km/h
647 07-08-2008 02:28:03 21.1 C 11.06 g/m*3 21.1 C 0 km/h
648 07-08-2008 02:40:03 20.9 C 11.29 g/m*3 20.9 C 0 km/h
649 07-08-2008 02:52:03 20.7 C 11.34 g/m*3 20.7 C 0 km/h
650 07-08-2008 03:04:03 20.6 C 11.28 g/m*3 20.6 C 0 km/h
Sensor: Nr:Datum:Temp:Abs-Feuchte:Windchill:Wind:
Aussen-T/F 651 07-08-2008 03:16:03 20.4 C 11.14 g/m*3 20.4 C 0 km/h
652 07-08-2008 03:28:03 20.3 C 11.26 g/m*3 20.3 C 0 km/h
653 07-08-2008 03:40:03 20.3 C 11.26 g/m*3 20.3 C 0 km/h
654 07-08-2008 03:52:03 20.2 C 11.19 g/m*3 20.2 C 0 km/h
655 07-08-2008 04:04:03 19.9 C 11.34 g/m*3 19.9 C 0 km/h
656 07-08-2008 04:16:03 19.7 C 11.38 g/m*3 19.7 C 0 km/h
657 07-08-2008 04:28:03 19.6 C 11.31 g/m*3 19.6 C 0 km/h
658 07-08-2008 04:40:03 19.4 C 11.35 g/m*3 19.4 C 0 km/h
659 07-08-2008 04:52:03 19.3 C 11.44 g/m*3 19.3 C 0 km/h
660 07-08-2008 05:04:03 19.3 C 11.44 g/m*3 19.3 C 0 km/h
661 07-08-2008 05:16:03 19.1 C 11.47 g/m*3 19.1 C 0 km/h
662 07-08-2008 05:28:03 18.8 C 11.6 g/m*3 18.8 C 0 km/h
663 07-08-2008 05:40:03 18.8 C 11.6 g/m*3 18.8 C 0 km/h
664 07-08-2008 05:52:04 18.6 C 11.62 g/m*3 18.6 C 0 km/h
665 07-08-2008 06:04:04 18.6 C 11.62 g/m*3 18.6 C 0 km/h
666 07-08-2008 06:16:04 18.5 C 11.71 g/m*3 18.5 C 0 km/h
667 07-08-2008 06:28:04 18.4 C 11.64 g/m*3 18.4 C 0 km/h
668 07-08-2008 06:40:04 18.3 C 11.57 g/m*3 18.3 C 0 km/h
669 07-08-2008 06:52:04 18.5 C 11.87 g/m*3 18.5 C 0 km/h
670 07-08-2008 07:04:03 18.7 C 12.01 g/m*3 18.7 C 0 km/h
671 07-08-2008 07:16:02 18.8 C 11.92 g/m*3 18.8 C 0 km/h
672 07-08-2008 07:28:02 18.6 C 11.94 g/m*3 18.6 C 0 km/h
673 07-08-2008 07:40:02 18.8 C 12.08 g/m*3 18.8 C 0 km/h
674 07-08-2008 07:52:02 19.1 C 11.97 g/m*3 19.1 C 0 km/h
675 07-08-2008 08:04:02 19.2 C 12.04 g/m*3 19.2 C 0 km/h
Sensor: Nr:Datum:Temp:Abs-Feuchte:Windchill:Wind:
Aussen-T/F 676 07-08-2008 08:16:02 19.6 C 12.15 g/m*3 19.6 C 0 km/h
677 07-08-2008 08:28:02 19.9 C 12.2 g/m*3 19.9 C 0 km/h
678 07-08-2008 08:40:02 20.3 C 12.14 g/m*3 20.3 C 0 km/h
679 07-08-2008 08:52:02 20.9 C 12.38 g/m*3 20.9 C 0 km/h
680 07-08-2008 09:04:02 21.6 C 12.52 g/m*3 21.6 C 0 km/h
681 07-08-2008 09:16:02 22.5 C 12.58 g/m*3 22.5 C 0 km/h
682 07-08-2008 09:28:02 23 C 12.33 g/m*3 23 C 0 km/h
683 07-08-2008 09:40:02 23.7 C 12.62 g/m*3 23.7 C 0 km/h
684 07-08-2008 09:52:03 24.2 C 12.54 g/m*3 24.2 C 0 km/h
685 07-08-2008 10:04:02 24.7 C 12.22 g/m*3 24.7 C 0 km/h
686 07-08-2008 10:16:02 25.3 C 11.47 g/m*3 25.3 C 0 km/h
687 07-08-2008 10:28:02 26.2 C 11.32 g/m*3 26.2 C 0 km/h
688 07-08-2008 10:40:02 26.8 C 11.45 g/m*3 26.8 C 0 km/h
689 07-08-2008 10:52:02 27.2 C 11.19 g/m*3 27.2 C 0 km/h
690 07-08-2008 11:04:02 27.4 C 11.31 g/m*3 27.4 C 0 km/h
691 07-08-2008 11:16:02 28 C 11.42 g/m*3 28 C 0 km/h
692 07-08-2008 11:28:02 28.3 C 11.06 g/m*3 28.3 C 0 km/h
693 07-08-2008 11:40:02 28.3 C 11.33 g/m*3 28.3 C 0 km/h
694 07-08-2008 11:52:02 28.7 C 10.74 g/m*3 28.7 C 0 km/h
695 07-08-2008 12:04:02 29.1 C 10.69 g/m*3 29.1 C 0 km/h
696 07-08-2008 12:16:02 29.1 C 10.69 g/m*3 29.1 C 0 km/h
697 07-08-2008 12:28:02 28.7 C 10.74 g/m*3 28.7 C 0 km/h
698 07-08-2008 12:40:02 29.3 C 10.51 g/m*3 29.3 C 0 km/h
699 07-08-2008 12:52:02 29.9 C 10.56 g/m*3 29.9 C 0 km/h
700 07-08-2008 13:04:02 30.4 C 10.54 g/m*3 30.4 C 0 km/h
Sensor: Nr:Datum:Temp:Abs-Feuchte:Windchill:Wind:
Aussen-T/F 701 07-08-2008 13:16:02 30.6 C 10.02 g/m*3 30.6 C 0 km/h
702 07-08-2008 13:28:02 30.4 C 10.23 g/m*3 30.4 C 0 km/h
703 07-08-2008 13:40:02 29.6 C 10.09 g/m*3 29.6 C 0 km/h
704 07-08-2008 13:52:01 29.8 C 10.5 g/m*3 29.8 C 0 km/h
705 07-08-2008 14:04:02 29.4 C 10.57 g/m*3 29.4 C 0 km/h
706 07-08-2008 14:16:01 29.8 C 10.5 g/m*3 29.8 C 0 km/h
707 07-08-2008 14:28:01 28.8 C 10.51 g/m*3 28.8 C 0 km/h
708 07-08-2008 14:40:02 28.1 C 10.39 g/m*3 28.1 C 0 km/h
709 07-08-2008 14:52:02 28.4 C 10.56 g/m*3 28.4 C 0 km/h
710 07-08-2008 15:04:02 28 C 10.33 g/m*3 28 C 0 km/h
711 07-08-2008 15:16:02 28.2 C 10.72 g/m*3 28.2 C 0 km/h
712 07-08-2008 15:28:02 28.5 C 10.34 g/m*3 28.5 C 0 km/h
713 07-08-2008 15:40:02 29.2 C 9.87 g/m*3 29.2 C 0 km/h
714 07-08-2008 15:52:01 29.1 C 9.24 g/m*3 29.1 C 0 km/h
715 07-08-2008 16:04:02 29.3 C 9.63 g/m*3 29.3 C 0 km/h
716 07-08-2008 16:16:01 28.7 C 9.89 g/m*3 28.7 C 0 km/h
717 07-08-2008 16:28:01 29.3 C 9.63 g/m*3 29.3 C 0 km/h
718 07-08-2008 16:40:02 29.4 C 9.39 g/m*3 29.4 C 0 km/h
719 07-08-2008 16:52:02 30.4 C 9.3 g/m*3 30.4 C 0 km/h
720 07-08-2008 17:04:01 30.7 C 9.13 g/m*3 30.7 C 0 km/h
721 07-08-2008 17:16:02 30.1 C 8.84 g/m*3 30.1 C 0 km/h
722 07-08-2008 17:28:02 29.4 C 8.81 g/m*3 29.4 C 0 km/h
723 07-08-2008 17:40:01 29.4 C 8.81 g/m*3 29.4 C 0 km/h
724 07-08-2008 17:52:02 28.7 C 8.48 g/m*3 28.7 C 0 km/h
725 07-08-2008 18:04:01 30.1 C 8.54 g/m*3 30.1 C 0 km/h
Sensor: Nr:Datum:Temp:Abs-Feuchte:Windchill:Wind:
Aussen-T/F 726 07-08-2008 18:16:02 29.9 C 8.14 g/m*3 29.9 C 0 km/h
727 07-08-2008 18:28:03 28.8 C 8.52 g/m*3 28.8 C 0 km/h
728 07-08-2008 18:40:01 28.6 C 8.71 g/m*3 28.6 C 0 km/h
729 07-08-2008 18:52:02 28.5 C 8.66 g/m*3 28.5 C 0 km/h
730 07-08-2008 19:04:01 28.3 C 8.57 g/m*3 28.3 C 0 km/h
731 07-08-2008 19:16:02 27.7 C 8.56 g/m*3 27.7 C 0 km/h
732 07-08-2008 19:28:02 27.1 C 8.54 g/m*3 27.1 C 0 km/h
733 07-08-2008 19:40:01 26.9 C 8.96 g/m*3 26.9 C 0 km/h
734 07-08-2008 19:52:02 26.6 C 9.06 g/m*3 26.6 C 0 km/h
735 07-08-2008 20:04:02 26.7 C 9.11 g/m*3 26.7 C 0 km/h
736 07-08-2008 20:16:02 27.2 C 8.85 g/m*3 27.2 C 0 km/h
737 07-08-2008 20:28:02 26.1 C 8.81 g/m*3 26.1 C 0 km/h
738 07-08-2008 20:40:02 25.4 C 8.71 g/m*3 25.4 C 0 km/h
739 07-08-2008 20:52:02 24.8 C 8.42 g/m*3 24.8 C 0 km/h
740 07-08-2008 21:04:02 24.6 C 8.33 g/m*3 24.6 C 0 km/h
741 07-08-2008 21:16:02 24.3 C 8.41 g/m*3 24.3 C 0 km/h
742 07-08-2008 21:28:02 24 C 8.49 g/m*3 24 C 0 km/h
743 07-08-2008 21:40:02 23.7 C 8.77 g/m*3 23.7 C 0 km/h
744 07-08-2008 21:52:02 23.4 C 8.83 g/m*3 23.4 C 0 km/h
745 07-08-2008 22:04:02 23.3 C 8.78 g/m*3 23.3 C 0 km/h
746 07-08-2008 22:17:02 23.3 C 8.57 g/m*3 23.3 C 0 km/h
747 07-08-2008 22:29:02 23.1 C 8.27 g/m*3 23.1 C 0 km/h
748 07-08-2008 22:41:02 23 C 8.43 g/m*3 23 C 0 km/h
749 07-08-2008 22:53:02 20.4 C 10.79 g/m*3 20.4 C 0 km/h
750 07-08-2008 23:05:02 19.2 C 12.7 g/m*3 19.2 C 0 km/h
Sensor: Nr:Datum:Temp:Abs-Feuchte:Windchill:Wind:
Aussen-T/F 751 07-08-2008 23:17:02 18.5 C 12.82 g/m*3 18.5 C 0 km/h
752 07-08-2008 23:29:01 17.9 C 12.67 g/m*3 17.9 C 0 km/h
753 07-08-2008 23:41:01 17.8 C 12.9 g/m*3 17.8 C 0 km/h
754 07-08-2008 23:53:02 17.9 C 12.98 g/m*3 17.9 C 0 km/h
755 08-08-2008 00:05:02 18.2 C 13.06 g/m*3 18.2 C 0 km/h
756 08-08-2008 00:17:02 18.2 C 12.9 g/m*3 18.2 C 0 km/h
757 08-08-2008 00:29:02 17.9 C 12.67 g/m*3 17.9 C 0 km/h
758 08-08-2008 00:41:02 17.8 C 12.6 g/m*3 17.8 C 0 km/h
759 08-08-2008 00:53:03 17.7 C 12.52 g/m*3 17.7 C 0 km/h
760 08-08-2008 01:05:03 17.6 C 12.45 g/m*3 17.6 C 0 km/h
761 08-08-2008 01:17:03 17.6 C 12.45 g/m*3 17.6 C 0 km/h
762 08-08-2008 01:41:03 17.7 C 12.37 g/m*3 17.7 C 0 km/h
763 08-08-2008 01:53:03 17.7 C 12.37 g/m*3 17.7 C 0 km/h
764 08-08-2008 02:05:03 17.7 C 12.22 g/m*3 17.7 C 0 km/h
765 08-08-2008 02:29:03 17.8 C 12.45 g/m*3 17.8 C 0 km/h
766 08-08-2008 02:41:04 17.7 C 12.37 g/m*3 17.7 C 0 km/h
767 08-08-2008 02:53:04 17.7 C 12.37 g/m*3 17.7 C 0 km/h
768 08-08-2008 03:05:34 17.6 C 12.3 g/m*3 17.6 C 0 km/h
769 08-08-2008 03:17:34 17.7 C 12.37 g/m*3 17.7 C 0 km/h
770 08-08-2008 03:29:34 17.7 C 12.37 g/m*3 17.7 C 0 km/h
771 08-08-2008 03:41:04 17.7 C 12.37 g/m*3 17.7 C 0 km/h
772 08-08-2008 03:53:05 17.8 C 12.29 g/m*3 17.8 C 0 km/h
773 08-08-2008 04:05:05 18.1 C 12.05 g/m*3 18.1 C 0 km/h
774 08-08-2008 04:17:35 18 C 11.83 g/m*3 18 C 0 km/h
775 08-08-2008 04:29:35 17.9 C 11.76 g/m*3 17.9 C 0 km/h
Sensor: Nr:Datum:Temp:Abs-Feuchte:Windchill:Wind:
Aussen-T/F 776 08-08-2008 04:41:02 17.9 C 11.6 g/m*3 17.9 C 0 km/h
777 08-08-2008 04:53:02 17.7 C 11.47 g/m*3 17.7 C 0 km/h
778 08-08-2008 05:05:02 17.7 C 11.47 g/m*3 17.7 C 0 km/h
779 08-08-2008 05:17:02 17.7 C 11.47 g/m*3 17.7 C 0 km/h
780 08-08-2008 05:29:01 17.6 C 11.55 g/m*3 17.6 C 0 km/h
781 08-08-2008 05:41:01 17.7 C 11.47 g/m*3 17.7 C 0 km/h
782 08-08-2008 05:53:02 17.7 C 11.32 g/m*3 17.7 C 0 km/h
783 08-08-2008 06:05:02 17.6 C 11.25 g/m*3 17.6 C 0 km/h
784 08-08-2008 06:17:02 17.7 C 11.16 g/m*3 17.7 C 0 km/h
785 08-08-2008 06:29:02 17.8 C 11.23 g/m*3 17.8 C 0 km/h
786 08-08-2008 06:41:02 17.7 C 11.47 g/m*3 17.7 C 0 km/h
787 08-08-2008 06:53:33 17.1 C 11.65 g/m*3 17.1 C 0 km/h
788 08-08-2008 07:05:33 17.2 C 11.72 g/m*3 17.2 C 0 km/h
789 08-08-2008 07:17:33 17.7 C 11.62 g/m*3 17.7 C 0 km/h
790 08-08-2008 07:29:33 18 C 11.21 g/m*3 18 C 0 km/h
791 08-08-2008 07:41:33 17.7 C 11.16 g/m*3 17.7 C 0 km/h
792 08-08-2008 07:53:33 16.6 C 11.72 g/m*3 16.6 C 0 km/h
793 08-08-2008 08:17:34 16.3 C 11.93 g/m*3 16.3 C 0 km/h
794 08-08-2008 08:29:34 16.6 C 12.29 g/m*3 16.6 C 0 km/h
795 08-08-2008 08:41:34 16.9 C 12.37 g/m*3 16.9 C 0 km/h
796 08-08-2008 09:05:34 17 C 11.72 g/m*3 17 C 0 km/h
797 08-08-2008 09:17:34 17 C 11.87 g/m*3 17 C 0 km/h
798 08-08-2008 09:29:34 16.8 C 11.87 g/m*3 16.8 C 0 km/h
799 08-08-2008 09:41:03 17.2 C 12.15 g/m*3 17.2 C 0 km/h
800 08-08-2008 09:53:03 17.5 C 12.08 g/m*3 17.5 C 0 km/h
Sensor: Nr:Datum:Temp:Abs-Feuchte:Windchill:Wind:
Aussen-T/F 801 08-08-2008 10:05:03 17.7 C 11.92 g/m*3 17.7 C 0 km/h
802 08-08-2008 10:17:02 17.7 C 11.62 g/m*3 17.7 C 0 km/h
803 08-08-2008 10:29:02 17.8 C 11.84 g/m*3 17.8 C 0 km/h
804 08-08-2008 10:41:02 18.2 C 11.81 g/m*3 18.2 C 0 km/h
805 08-08-2008 10:53:02 18.5 C 11.55 g/m*3 18.5 C 0 km/h
806 08-08-2008 11:05:02 18.8 C 11.76 g/m*3 18.8 C 0 km/h
807 08-08-2008 11:17:03 19.4 C 11.85 g/m*3 19.4 C 0 km/h
808 08-08-2008 11:29:03 20.3 C 11.78 g/m*3 20.3 C 0 km/h
809 08-08-2008 11:41:02 20.9 C 11.47 g/m*3 20.9 C 0 km/h
810 08-08-2008 11:53:02 21.9 C 11 g/m*3 21.9 C 0 km/h
811 08-08-2008 12:05:02 21.7 C 10.68 g/m*3 21.7 C 0 km/h
812 08-08-2008 12:17:03 21.4 C 10.87 g/m*3 21.4 C 0 km/h
813 08-08-2008 12:29:03 21.7 C 11.06 g/m*3 21.7 C 0 km/h
814 08-08-2008 12:41:02 16.9 C 10.64 g/m*3 16.9 C 0 km/h
815 08-08-2008 12:53:02 16 C 11.44 g/m*3 16 C 0 km/h
816 08-08-2008 13:05:02 17.8 C 13.2 g/m*3 17.8 C 0 km/h
817 08-08-2008 13:17:02 19.2 C 13.85 g/m*3 19.2 C 0 km/h
818 08-08-2008 13:29:02 20.9 C 13.11 g/m*3 20.9 C 0 km/h
819 08-08-2008 13:41:02 21.8 C 12.28 g/m*3 21.8 C 0 km/h
820 08-08-2008 13:53:01 20.8 C 13.04 g/m*3 20.8 C 0 km/h
821 08-08-2008 14:05:02 20.4 C 13.27 g/m*3 20.4 C 0 km/h
822 08-08-2008 14:17:02 20.3 C 14.07 g/m*3 20.3 C 0 km/h
823 08-08-2008 14:29:02 21.1 C 13.82 g/m*3 21.1 C 0 km/h
824 08-08-2008 14:41:02 22 C 13.78 g/m*3 22 C 0 km/h
825 08-08-2008 14:53:02 22.7 C 12.73 g/m*3 22.7 C 0 km/h
Sensor: Nr:Datum:Temp:Abs-Feuchte:Windchill:Wind:
Aussen-T/F 826 08-08-2008 15:05:02 21.7 C 12.02 g/m*3 21.7 C 0 km/h
827 08-08-2008 15:17:02 19.2 C 11.71 g/m*3 19.2 C 0 km/h
828 08-08-2008 15:29:03 20 C 12.96 g/m*3 20 C 0 km/h
829 08-08-2008 15:41:03 21.9 C 11.77 g/m*3 21.9 C 0 km/h
830 08-08-2008 15:53:03 22.1 C 11.52 g/m*3 22.1 C 0 km/h
831 08-08-2008 16:05:03 21.1 C 9.58 g/m*3 21.1 C 0 km/h
832 08-08-2008 16:17:02 21.1 C 9.95 g/m*3 21.1 C 0 km/h
833 08-08-2008 16:29:02 22.7 C 9.7 g/m*3 22.7 C 0 km/h
834 08-08-2008 16:41:02 22.1 C 9.17 g/m*3 22.1 C 0 km/h
835 08-08-2008 16:53:01 21.6 C 9.48 g/m*3 21.6 C 0 km/h
836 08-08-2008 17:05:01 21.8 C 9.21 g/m*3 21.8 C 0 km/h
837 08-08-2008 17:17:01 21.8 C 9.4 g/m*3 21.8 C 0 km/h
838 08-08-2008 17:29:01 21.4 C 9.19 g/m*3 21.4 C 0 km/h
839 08-08-2008 17:41:01 19.7 C 9.85 g/m*3 19.7 C 0 km/h
840 08-08-2008 17:53:02 18.7 C 11.05 g/m*3 18.7 C 0 km/h
841 08-08-2008 18:05:02 18.9 C 11.66 g/m*3 18.9 C 0 km/h
842 08-08-2008 18:17:02 19.5 C 11.24 g/m*3 19.5 C 0 km/h
843 08-08-2008 18:29:02 19.5 C 10.74 g/m*3 19.5 C 0 km/h
844 08-08-2008 18:41:02 19.4 C 10.51 g/m*3 19.4 C 0 km/h
845 08-08-2008 18:53:28 19.3 C 10.28 g/m*3 19.3 C 0 km/h
846 08-08-2008 19:05:02 19.4 C 10.34 g/m*3 19.4 C 0 km/h
847 08-08-2008 19:17:03 19.4 C 10.34 g/m*3 19.4 C 0 km/h
848 08-08-2008 19:29:03 19.3 C 10.28 g/m*3 19.3 C 0 km/h
849 08-08-2008 19:41:03 19.3 C 10.12 g/m*3 19.3 C 0 km/h
850 08-08-2008 19:53:02 19.3 C 10.12 g/m*3 19.3 C 0 km/h
Sensor: Nr:Datum:Temp:Abs-Feuchte:Windchill:Wind:
Aussen-T/F 851 08-08-2008 20:05:03 19 C 10.27 g/m*3 19 C 0 km/h
852 08-08-2008 20:17:02 17.8 C 11.08 g/m*3 17.8 C 0 km/h
853 08-08-2008 20:29:02 17.5 C 11.18 g/m*3 17.5 C 0 km/h
854 08-08-2008 20:41:03 16.8 C 11.58 g/m*3 16.8 C 0 km/h
855 08-08-2008 20:53:02 16.5 C 11.8 g/m*3 16.5 C 0 km/h
856 08-08-2008 21:05:02 16.4 C 12 g/m*3 16.4 C 0 km/h
857 08-08-2008 21:17:02 16.3 C 12.07 g/m*3 16.3 C 0 km/h
858 08-08-2008 21:29:01 16.3 C 12.21 g/m*3 16.3 C 0 km/h
859 08-08-2008 21:41:01 16.5 C 12.22 g/m*3 16.5 C 0 km/h
860 08-08-2008 21:54:01 16.6 C 12.15 g/m*3 16.6 C 0 km/h
861 08-08-2008 22:06:01 16.7 C 12.08 g/m*3 16.7 C 0 km/h
862 08-08-2008 22:18:01 16.7 C 11.94 g/m*3 16.7 C 0 km/h
863 08-08-2008 22:30:01 16.8 C 11.87 g/m*3 16.8 C 0 km/h
864 08-08-2008 22:42:01 16.4 C 11.58 g/m*3 16.4 C 0 km/h
865 08-08-2008 22:54:01 16.1 C 11.93 g/m*3 16.1 C 0 km/h
866 08-08-2008 23:06:01 16 C 11.99 g/m*3 16 C 0 km/h
867 08-08-2008 23:18:01 16 C 12.13 g/m*3 16 C 0 km/h
868 08-08-2008 23:30:02 16.1 C 12.34 g/m*3 16.1 C 0 km/h
869 08-08-2008 23:42:02 16.2 C 12.41 g/m*3 16.2 C 0 km/h
870 08-08-2008 23:54:02 16.1 C 12.2 g/m*3 16.1 C 0 km/h
871 09-08-2008 00:06:02 16 C 11.99 g/m*3 16 C 0 km/h
872 09-08-2008 00:18:02 16.1 C 12.06 g/m*3 16.1 C 0 km/h
873 09-08-2008 00:30:02 16.2 C 12 g/m*3 16.2 C 0 km/h
874 09-08-2008 00:42:02 16.2 C 11.86 g/m*3 16.2 C 0 km/h
875 09-08-2008 00:54:02 16.1 C 11.65 g/m*3 16.1 C 0 km/h
Sensor: Nr:Datum:Temp:Abs-Feuchte:Windchill:Wind:
Aussen-T/F 876 09-08-2008 01:06:02 15.9 C 11.51 g/m*3 15.9 C 0 km/h
877 09-08-2008 01:18:02 15.7 C 11.37 g/m*3 15.7 C 0 km/h
878 09-08-2008 01:30:02 15.4 C 11.3 g/m*3 15.4 C 0 km/h
879 09-08-2008 01:42:02 15.1 C 11.09 g/m*3 15.1 C 0 km/h
880 09-08-2008 01:54:02 14.9 C 11.22 g/m*3 14.9 C 0 km/h
881 09-08-2008 02:06:02 14.9 C 11.22 g/m*3 14.9 C 0 km/h
882 09-08-2008 02:18:02 14.7 C 11.08 g/m*3 14.7 C 0 km/h
883 09-08-2008 02:30:02 14.5 C 10.94 g/m*3 14.5 C 0 km/h
884 09-08-2008 02:42:02 14.5 C 10.94 g/m*3 14.5 C 0 km/h
885 09-08-2008 02:54:02 14.4 C 10.88 g/m*3 14.4 C 0 km/h
886 09-08-2008 03:06:02 14.4 C 10.88 g/m*3 14.4 C 0 km/h
887 09-08-2008 03:18:03 14.5 C 10.7 g/m*3 14.5 C 0 km/h
888 09-08-2008 03:30:03 14.5 C 10.32 g/m*3 14.5 C 0 km/h
889 09-08-2008 03:42:03 14.4 C 10.26 g/m*3 14.4 C 0 km/h
890 09-08-2008 03:54:03 14.4 C 10.26 g/m*3 14.4 C 0 km/h
891 09-08-2008 04:06:03 14.5 C 10.45 g/m*3 14.5 C 0 km/h
892 09-08-2008 04:18:03 14.5 C 10.45 g/m*3 14.5 C 0 km/h
893 09-08-2008 04:30:03 14.5 C 10.57 g/m*3 14.5 C 0 km/h
894 09-08-2008 04:42:03 14.6 C 10.64 g/m*3 14.6 C 0 km/h
895 09-08-2008 04:54:03 14.6 C 10.64 g/m*3 14.6 C 0 km/h
896 09-08-2008 05:06:03 14.7 C 10.58 g/m*3 14.7 C 0 km/h
897 09-08-2008 05:18:03 14.6 C 10.51 g/m*3 14.6 C 0 km/h
898 09-08-2008 05:30:03 14.6 C 10.51 g/m*3 14.6 C 0 km/h
899 09-08-2008 05:42:03 14.6 C 10.39 g/m*3 14.6 C 0 km/h
900 09-08-2008 05:54:03 14.7 C 10.2 g/m*3 14.7 C 0 km/h
Sensor: Nr:Datum:Temp:Abs-Feuchte:Windchill:Wind:
Aussen-T/F 901 09-08-2008 06:06:03 14.7 C 10.07 g/m*3 14.7 C 0 km/h
902 09-08-2008 06:18:03 14.9 C 9.81 g/m*3 14.9 C 0 km/h
903 09-08-2008 06:30:03 14.9 C 9.69 g/m*3 14.9 C 0 km/h
904 09-08-2008 06:42:03 14.9 C 9.69 g/m*3 14.9 C 0 km/h
905 09-08-2008 06:54:03 15 C 9.87 g/m*3 15 C 0 km/h
906 09-08-2008 07:06:03 15 C 9.75 g/m*3 15 C 0 km/h
907 09-08-2008 07:18:04 14.9 C 9.43 g/m*3 14.9 C 0 km/h
908 09-08-2008 07:30:04 14.8 C 9.37 g/m*3 14.8 C 0 km/h
909 09-08-2008 07:42:04 15 C 9.36 g/m*3 15 C 0 km/h
910 09-08-2008 07:54:04 15.1 C 9.29 g/m*3 15.1 C 0 km/h
911 09-08-2008 08:06:02 14.7 C 9.19 g/m*3 14.7 C 0 km/h
912 09-08-2008 08:18:02 14.7 C 9.44 g/m*3 14.7 C 0 km/h
913 09-08-2008 08:30:02 15.1 C 9.42 g/m*3 15.1 C 0 km/h
914 09-08-2008 08:42:01 15.7 C 9.1 g/m*3 15.7 C 0 km/h
915 09-08-2008 08:54:02 16.2 C 9.38 g/m*3 16.2 C 0 km/h
916 09-08-2008 09:06:02 16.3 C 9.02 g/m*3 16.3 C 0 km/h
917 09-08-2008 09:18:02 16.3 C 9.43 g/m*3 16.3 C 0 km/h
918 09-08-2008 09:30:02 16.8 C 9.72 g/m*3 16.8 C 0 km/h
919 09-08-2008 09:42:02 17.1 C 9.17 g/m*3 17.1 C 0 km/h
920 09-08-2008 09:54:02 16.6 C 9.04 g/m*3 16.6 C 0 km/h
921 09-08-2008 10:06:02 17.6 C 8.85 g/m*3 17.6 C 0 km/h
922 09-08-2008 10:18:01 17.9 C 8.09 g/m*3 17.9 C 0 km/h
923 09-08-2008 10:30:01 18.1 C 7.73 g/m*3 18.1 C 0 km/h
924 09-08-2008 10:42:02 18.5 C 7.91 g/m*3 18.5 C 0 km/h
925 09-08-2008 10:54:02 18.6 C 6.84 g/m*3 18.6 C 0 km/h
Sensor: Nr:Datum:Temp:Abs-Feuchte:Windchill:Wind:
Aussen-T/F 926 09-08-2008 11:06:02 19 C 7.66 g/m*3 19 C 0 km/h
927 09-08-2008 11:18:02 20.2 C 6.64 g/m*3 20.2 C 0 km/h
928 09-08-2008 11:30:02 19.9 C 7.22 g/m*3 19.9 C 0 km/h
929 09-08-2008 11:42:02 20.4 C 6.72 g/m*3 20.4 C 0 km/h
930 09-08-2008 11:54:02 20.7 C 6.48 g/m*3 20.7 C 0 km/h
931 09-08-2008 12:06:01 20.9 C 6.19 g/m*3 20.9 C 0 km/h
932 09-08-2008 12:18:02 21.9 C 6.18 g/m*3 21.9 C 0 km/h
933 09-08-2008 12:30:02 22.5 C 6.19 g/m*3 22.5 C 0 km/h
934 09-08-2008 12:42:01 21.5 C 6.03 g/m*3 21.5 C 0 km/h
935 09-08-2008 12:54:02 22.3 C 5.73 g/m*3 22.3 C 0 km/h
936 09-08-2008 13:06:01 22.4 C 5.56 g/m*3 22.4 C 0 km/h
937 09-08-2008 13:18:02 23.1 C 5.37 g/m*3 23.1 C 0 km/h
938 09-08-2008 13:30:02 23.5 C 5.29 g/m*3 23.5 C 0 km/h
939 09-08-2008 13:42:01 23.5 C 5.5 g/m*3 23.5 C 0 km/h
940 09-08-2008 13:54:03 22.9 C 5.11 g/m*3 22.9 C 0 km/h
941 09-08-2008 14:06:02 23.2 C 5.61 g/m*3 23.2 C 0 km/h
942 09-08-2008 14:18:03 23 C 5.34 g/m*3 23 C 0 km/h
943 09-08-2008 14:30:03 23.2 C 5.2 g/m*3 23.2 C 0 km/h
944 09-08-2008 14:42:02 24.4 C 5.56 g/m*3 24.4 C 0 km/h
945 09-08-2008 14:54:02 25.2 C 5.12 g/m*3 25.2 C 0 km/h
946 09-08-2008 15:06:03 24.3 C 5.53 g/m*3 24.3 C 0 km/h
947 09-08-2008 15:18:03 24.9 C 5.72 g/m*3 24.9 C 0 km/h
948 09-08-2008 15:30:03 25.6 C 5.48 g/m*3 25.6 C 0 km/h
949 09-08-2008 15:42:03 26.1 C 5.63 g/m*3 26.1 C 0 km/h
950 09-08-2008 15:54:02 26.1 C 5.39 g/m*3 26.1 C 0 km/h
Sensor: Nr:Datum:Temp:Abs-Feuchte:Windchill:Wind:
Aussen-T/F 951 09-08-2008 16:06:03 25.9 C 5.33 g/m*3 25.9 C 0 km/h
952 09-08-2008 16:18:02 25.9 C 6.05 g/m*3 25.9 C 0 km/h
953 09-08-2008 16:30:02 25.4 C 5.65 g/m*3 25.4 C 0 km/h
954 09-08-2008 16:42:03 24.8 C 5.92 g/m*3 24.8 C 0 km/h
955 09-08-2008 16:54:03 24.8 C 5.92 g/m*3 24.8 C 0 km/h
956 09-08-2008 17:06:02 26.3 C 5.94 g/m*3 26.3 C 0 km/h
957 09-08-2008 17:18:02 26.4 C 5.48 g/m*3 26.4 C 0 km/h
958 09-08-2008 17:30:02 25.4 C 5.89 g/m*3 25.4 C 0 km/h
959 09-08-2008 17:42:02 24.9 C 5.95 g/m*3 24.9 C 0 km/h
960 09-08-2008 17:54:01 26 C 6.09 g/m*3 26 C 0 km/h
961 09-08-2008 18:06:02 26.2 C 6.15 g/m*3 26.2 C 0 km/h
962 09-08-2008 18:18:01 25.2 C 6.05 g/m*3 25.2 C 0 km/h
963 09-08-2008 18:30:01 25 C 6.22 g/m*3 25 C 0 km/h
964 09-08-2008 18:42:02 25.9 C 6.29 g/m*3 25.9 C 0 km/h
965 09-08-2008 18:54:01 25.8 C 6.74 g/m*3 25.8 C 0 km/h
966 09-08-2008 19:06:02 25.3 C 6.79 g/m*3 25.3 C 0 km/h
967 09-08-2008 19:18:02 24.9 C 7.1 g/m*3 24.9 C 0 km/h
968 09-08-2008 19:30:02 23.9 C 7.14 g/m*3 23.9 C 0 km/h
969 09-08-2008 19:42:01 23.8 C 7.1 g/m*3 23.8 C 0 km/h
970 09-08-2008 19:54:01 23.3 C 7.32 g/m*3 23.3 C 0 km/h
971 09-08-2008 20:06:02 22.9 C 7.56 g/m*3 22.9 C 0 km/h
972 09-08-2008 20:18:01 22.3 C 7.7 g/m*3 22.3 C 0 km/h
973 09-08-2008 20:30:01 21.6 C 7.78 g/m*3 21.6 C 0 km/h
974 09-08-2008 20:42:02 21 C 7.69 g/m*3 21 C 0 km/h
975 09-08-2008 20:54:02 20.7 C 8.1 g/m*3 20.7 C 0 km/h
Sensor: Nr:Datum:Temp:Abs-Feuchte:Windchill:Wind:
Aussen-T/F 976 09-08-2008 21:06:02 20 C 7.95 g/m*3 20 C 0 km/h
977 09-08-2008 21:18:02 19.9 C 8.25 g/m*3 19.9 C 0 km/h
978 09-08-2008 21:30:02 19.8 C 8.2 g/m*3 19.8 C 0 km/h
979 09-08-2008 21:42:02 19.6 C 8.27 g/m*3 19.6 C 0 km/h
980 09-08-2008 21:54:02 19.5 C 8.39 g/m*3 19.5 C 0 km/h
981 09-08-2008 22:06:01 19.3 C 8.63 g/m*3 19.3 C 0 km/h
982 09-08-2008 22:18:02 19 C 8.8 g/m*3 19 C 0 km/h
983 09-08-2008 22:30:02 19 C 8.8 g/m*3 19 C 0 km/h
984 09-08-2008 22:42:01 18.9 C 9.23 g/m*3 18.9 C 0 km/h
985 09-08-2008 22:54:02 18.9 C 9.23 g/m*3 18.9 C 0 km/h
986 09-08-2008 23:06:01 18.8 C 9.34 g/m*3 18.8 C 0 km/h
987 09-08-2008 23:18:02 18.7 C 9.13 g/m*3 18.7 C 0 km/h
988 09-08-2008 23:30:02 18.4 C 9.28 g/m*3 18.4 C 0 km/h
989 09-08-2008 23:43:02 18.2 C 9.33 g/m*3 18.2 C 0 km/h
990 09-08-2008 23:55:02 18 C 9.37 g/m*3 18 C 0 km/h
991 10-08-2008 00:07:02 17.8 C 9.56 g/m*3 17.8 C 0 km/h
992 10-08-2008 00:19:02 17.7 C 9.51 g/m*3 17.7 C 0 km/h
993 10-08-2008 00:31:02 17.7 C 9.51 g/m*3 17.7 C 0 km/h
994 10-08-2008 00:43:02 17.9 C 9.77 g/m*3 17.9 C 0 km/h
995 10-08-2008 00:55:02 17.9 C 9.77 g/m*3 17.9 C 0 km/h
996 10-08-2008 01:07:02 18 C 9.68 g/m*3 18 C 0 km/h
997 10-08-2008 01:19:02 18.1 C 9.73 g/m*3 18.1 C 0 km/h
998 10-08-2008 01:31:02 17.9 C 9.77 g/m*3 17.9 C 0 km/h
999 10-08-2008 01:43:02 17.9 C 9.92 g/m*3 17.9 C 0 km/h
1000 10-08-2008 01:55:02 18 C 9.83 g/m*3 18 C 0 km/h
Sensor: Nr:Datum:Temp:Abs-Feuchte:Windchill:Wind:
Aussen-T/F 1001 10-08-2008 02:07:02 17.9 C 10.08 g/m*3 17.9 C 0 km/h
1002 10-08-2008 02:19:02 17.7 C 10.11 g/m*3 17.7 C 0 km/h
1003 10-08-2008 02:31:02 18 C 10.14 g/m*3 18 C 0 km/h
1004 10-08-2008 02:43:02 18.1 C 9.73 g/m*3 18.1 C 0 km/h
1005 10-08-2008 02:55:02 18.3 C 9.85 g/m*3 18.3 C 0 km/h
1006 10-08-2008 03:07:02 18.3 C 9.69 g/m*3 18.3 C 0 km/h
1007 10-08-2008 03:19:03 18.2 C 9.79 g/m*3 18.2 C 0 km/h
1008 10-08-2008 03:31:03 18.2 C 9.79 g/m*3 18.2 C 0 km/h
1009 10-08-2008 03:43:03 18.2 C 9.64 g/m*3 18.2 C 0 km/h
1010 10-08-2008 03:55:03 17.7 C 10.11 g/m*3 17.7 C 0 km/h
1011 10-08-2008 04:07:03 17.6 C 10.2 g/m*3 17.6 C 0 km/h
1012 10-08-2008 04:19:03 18 C 9.68 g/m*3 18 C 0 km/h
1013 10-08-2008 04:31:03 17.9 C 9.77 g/m*3 17.9 C 0 km/h
1014 10-08-2008 04:43:03 18 C 9.68 g/m*3 18 C 0 km/h
1015 10-08-2008 04:55:03 18 C 9.68 g/m*3 18 C 0 km/h
1016 10-08-2008 05:07:03 18 C 9.68 g/m*3 18 C 0 km/h
1017 10-08-2008 05:19:03 17.9 C 9.47 g/m*3 17.9 C 0 km/h
1018 10-08-2008 05:31:03 17.9 C 9.47 g/m*3 17.9 C 0 km/h
1019 10-08-2008 05:43:03 17.9 C 9.47 g/m*3 17.9 C 0 km/h
1020 10-08-2008 05:55:03 18.2 C 9.33 g/m*3 18.2 C 0 km/h
1021 10-08-2008 06:07:03 18.2 C 9.33 g/m*3 18.2 C 0 km/h
1022 10-08-2008 06:19:03 18.2 C 9.17 g/m*3 18.2 C 0 km/h
1023 10-08-2008 06:31:03 18.1 C 9.27 g/m*3 18.1 C 0 km/h
1024 10-08-2008 06:43:03 17.5 C 9.99 g/m*3 17.5 C 0 km/h
1025 10-08-2008 06:55:03 17.7 C 10.26 g/m*3 17.7 C 0 km/h
Sensor: Nr:Datum:Temp:Abs-Feuchte:Windchill:Wind:
Aussen-T/F 1026 10-08-2008 07:07:04 17.9 C 10.08 g/m*3 17.9 C 0 km/h
1027 10-08-2008 07:19:04 18.1 C 9.89 g/m*3 18.1 C 0 km/h
1028 10-08-2008 07:31:04 18.1 C 9.89 g/m*3 18.1 C 0 km/h
1029 10-08-2008 07:43:04 18.4 C 9.75 g/m*3 18.4 C 0 km/h
1030 10-08-2008 07:55:04 18.8 C 9.66 g/m*3 18.8 C 0 km/h
1031 10-08-2008 08:07:04 19.2 C 9.07 g/m*3 19.2 C 0 km/h
1032 10-08-2008 08:19:04 19.4 C 9.01 g/m*3 19.4 C 0 km/h
1033 10-08-2008 08:31:04 19.5 C 9.06 g/m*3 19.5 C 0 km/h
1034 10-08-2008 08:43:04 19.7 C 9 g/m*3 19.7 C 0 km/h
1035 10-08-2008 08:55:04 19.9 C 8.93 g/m*3 19.9 C 0 km/h
1036 10-08-2008 09:07:02 19.9 C 9.11 g/m*3 19.9 C 0 km/h
1037 10-08-2008 09:19:02 20.2 C 9.09 g/m*3 20.2 C 0 km/h
1038 10-08-2008 09:31:02 20.2 C 8.92 g/m*3 20.2 C 0 km/h
1039 10-08-2008 09:43:02 20.3 C 8.97 g/m*3 20.3 C 0 km/h
1040 10-08-2008 09:55:02 20.1 C 9.04 g/m*3 20.1 C 0 km/h
1041 10-08-2008 10:07:02 20 C 9.16 g/m*3 20 C 0 km/h
1042 10-08-2008 10:19:02 19.9 C 9.79 g/m*3 19.9 C 0 km/h
1043 10-08-2008 10:31:02 19.5 C 9.9 g/m*3 19.5 C 0 km/h
1044 10-08-2008 10:43:02 19.6 C 10.13 g/m*3 19.6 C 0 km/h
1045 10-08-2008 10:55:02 20 C 10.02 g/m*3 20 C 0 km/h
1046 10-08-2008 11:07:02 20 C 9.68 g/m*3 20 C 0 km/h
1047 10-08-2008 11:19:02 19 C 10.27 g/m*3 19 C 0 km/h
1048 10-08-2008 11:31:02 18.8 C 10.79 g/m*3 18.8 C 0 km/h
1049 10-08-2008 11:43:02 18.5 C 10.44 g/m*3 18.5 C 0 km/h
1050 10-08-2008 11:58:02 19.3 C 10.12 g/m*3 19.3 C 0 km/h
Sensor: Nr:Datum:Temp:Abs-Feuchte:Windchill:Wind:
Aussen-T/F 1051 10-08-2008 12:10:01 19.6 C 9.96 g/m*3 19.6 C 0 km/h
1052 10-08-2008 12:22:02 20 C 9.68 g/m*3 20 C 0 km/h
1053 10-08-2008 12:34:01 20.7 C 9.9 g/m*3 20.7 C 0 km/h
1054 10-08-2008 12:46:02 20.9 C 9.29 g/m*3 20.9 C 0 km/h
1055 10-08-2008 12:58:02 21.2 C 9.27 g/m*3 21.2 C 0 km/h
1056 10-08-2008 13:10:02 21.5 C 8.86 g/m*3 21.5 C 0 km/h
1057 10-08-2008 13:22:02 21.1 C 9.03 g/m*3 21.1 C 0 km/h
1058 10-08-2008 13:34:02 21.5 C 9.05 g/m*3 21.5 C 0 km/h
1059 10-08-2008 13:46:02 22.3 C 8.49 g/m*3 22.3 C 0 km/h
1060 10-08-2008 13:58:02 22.8 C 8.33 g/m*3 22.8 C 0 km/h
1061 10-08-2008 14:10:02 22.6 C 8.24 g/m*3 22.6 C 0 km/h
1062 10-08-2008 14:22:02 22.4 C 8.14 g/m*3 22.4 C 0 km/h
1063 10-08-2008 14:34:02 21.6 C 8.91 g/m*3 21.6 C 0 km/h
1064 10-08-2008 14:46:02 20.7 C 9.54 g/m*3 20.7 C 0 km/h
1065 10-08-2008 14:58:02 21.5 C 10.18 g/m*3 21.5 C 0 km/h
1066 10-08-2008 15:10:01 22.6 C 9.24 g/m*3 22.6 C 0 km/h
1067 10-08-2008 15:22:02 22.7 C 9.5 g/m*3 22.7 C 0 km/h
1068 10-08-2008 15:34:01 22.6 C 9.84 g/m*3 22.6 C 0 km/h
1069 10-08-2008 15:46:02 22.2 C 8.83 g/m*3 22.2 C 0 km/h
1070 10-08-2008 15:58:02 22.6 C 8.24 g/m*3 22.6 C 0 km/h
1071 10-08-2008 16:10:02 23.2 C 8.11 g/m*3 23.2 C 0 km/h
1072 10-08-2008 16:22:02 24.5 C 8.06 g/m*3 24.5 C 0 km/h
1073 10-08-2008 16:34:02 24 C 7.61 g/m*3 24 C 0 km/h
1074 10-08-2008 16:46:02 23.8 C 7.74 g/m*3 23.8 C 0 km/h
1075 10-08-2008 16:58:02 24 C 7.4 g/m*3 24 C 0 km/h
Sensor: Nr:Datum:Temp:Abs-Feuchte:Windchill:Wind:
Aussen-T/F 1076 10-08-2008 17:10:02 23.8 C 7.74 g/m*3 23.8 C 0 km/h
1077 10-08-2008 17:22:02 23.9 C 7.79 g/m*3 23.9 C 0 km/h
1078 10-08-2008 17:34:01 24 C 7.4 g/m*3 24 C 0 km/h
1079 10-08-2008 17:46:02 23.8 C 7.53 g/m*3 23.8 C 0 km/h
1080 10-08-2008 17:58:02 23.7 C 7.91 g/m*3 23.7 C 0 km/h
1081 10-08-2008 18:10:02 23.5 C 7.61 g/m*3 23.5 C 0 km/h
1082 10-08-2008 18:22:01 23.7 C 7.91 g/m*3 23.7 C 0 km/h
1083 10-08-2008 18:34:03 23.9 C 7.79 g/m*3 23.9 C 0 km/h
1084 10-08-2008 18:46:03 23.6 C 7.87 g/m*3 23.6 C 0 km/h
1085 10-08-2008 18:58:03 23.3 C 8.36 g/m*3 23.3 C 0 km/h
1086 10-08-2008 19:10:02 23.3 C 8.36 g/m*3 23.3 C 0 km/h
1087 10-08-2008 19:22:03 22.9 C 8.58 g/m*3 22.9 C 0 km/h
1088 10-08-2008 19:34:02 22.5 C 8.39 g/m*3 22.5 C 0 km/h
1089 10-08-2008 19:46:02 22.2 C 8.44 g/m*3 22.2 C 0 km/h
1090 10-08-2008 19:58:02 21.9 C 9.07 g/m*3 21.9 C 0 km/h
1091 10-08-2008 20:10:02 21.7 C 8.97 g/m*3 21.7 C 0 km/h
1092 10-08-2008 20:22:02 21.3 C 9.13 g/m*3 21.3 C 0 km/h
1093 10-08-2008 20:34:02 21 C 8.98 g/m*3 21 C 0 km/h
1094 10-08-2008 20:46:02 21 C 9.16 g/m*3 21 C 0 km/h
1095 10-08-2008 20:58:02 20.8 C 9.42 g/m*3 20.8 C 0 km/h
1096 10-08-2008 21:10:03 20.6 C 9.31 g/m*3 20.6 C 0 km/h
1097 10-08-2008 21:22:02 20.6 C 9.31 g/m*3 20.6 C 0 km/h
1098 10-08-2008 21:34:03 20.4 C 9.55 g/m*3 20.4 C 0 km/h
1099 10-08-2008 21:46:02 20.2 C 9.44 g/m*3 20.2 C 0 km/h
1100 10-08-2008 21:58:03 20 C 9.51 g/m*3 20 C 0 km/h
Sensor: Nr:Datum:Temp:Abs-Feuchte:Windchill:Wind:
Aussen-T/F 1101 10-08-2008 22:10:01 19.6 C 9.79 g/m*3 19.6 C 0 km/h
1102 10-08-2008 22:23:02 19.4 C 9.84 g/m*3 19.4 C 0 km/h
1103 10-08-2008 22:35:02 19.1 C 9.84 g/m*3 19.1 C 0 km/h
1104 10-08-2008 22:47:02 19.1 C 10 g/m*3 19.1 C 0 km/h
1105 10-08-2008 22:59:02 19 C 9.78 g/m*3 19 C 0 km/h
1106 10-08-2008 23:11:02 18.8 C 9.82 g/m*3 18.8 C 0 km/h
1107 10-08-2008 23:23:02 18.7 C 9.77 g/m*3 18.7 C 0 km/h
1108 10-08-2008 23:35:03 18.5 C 9.65 g/m*3 18.5 C 0 km/h
1109 10-08-2008 23:47:03 18.4 C 9.44 g/m*3 18.4 C 0 km/h
1110 10-08-2008 23:59:03 18.3 C 9.07 g/m*3 18.3 C 0 km/h
1111 11-08-2008 00:11:03 18.1 C 9.12 g/m*3 18.1 C 0 km/h
1112 11-08-2008 00:23:03 18.1 C 9.27 g/m*3 18.1 C 0 km/h
1113 11-08-2008 00:35:03 18.1 C 9.27 g/m*3 18.1 C 0 km/h
1114 11-08-2008 00:47:03 18.1 C 9.27 g/m*3 18.1 C 0 km/h
1115 11-08-2008 00:59:03 18.2 C 9.33 g/m*3 18.2 C 0 km/h
1116 11-08-2008 01:11:03 18.4 C 9.28 g/m*3 18.4 C 0 km/h
1117 11-08-2008 01:23:03 18.6 C 9.39 g/m*3 18.6 C 0 km/h
1118 11-08-2008 01:35:03 18.7 C 9.45 g/m*3 18.7 C 0 km/h
1119 11-08-2008 01:47:03 18.5 C 9.65 g/m*3 18.5 C 0 km/h
1120 11-08-2008 01:59:03 18.3 C 9.69 g/m*3 18.3 C 0 km/h
1121 11-08-2008 02:11:03 18 C 9.68 g/m*3 18 C 0 km/h
1122 11-08-2008 02:23:03 17.6 C 9.9 g/m*3 17.6 C 0 km/h
1123 11-08-2008 02:35:03 17.3 C 10.02 g/m*3 17.3 C 0 km/h
1124 11-08-2008 02:47:03 17.4 C 10.23 g/m*3 17.4 C 0 km/h
1125 11-08-2008 02:59:03 17.5 C 10.44 g/m*3 17.5 C 0 km/h
Sensor: Nr:Datum:Temp:Abs-Feuchte:Windchill:Wind:
Aussen-T/F 1126 11-08-2008 03:11:03 17.5 C 10.59 g/m*3 17.5 C 0 km/h
1127 11-08-2008 03:23:03 17.5 C 10.59 g/m*3 17.5 C 0 km/h
1128 11-08-2008 03:35:04 17.7 C 10.56 g/m*3 17.7 C 0 km/h
1129 11-08-2008 03:47:04 17.7 C 10.56 g/m*3 17.7 C 0 km/h
1130 11-08-2008 03:59:04 17.5 C 10.44 g/m*3 17.5 C 0 km/h
1131 11-08-2008 04:11:04 17.4 C 10.37 g/m*3 17.4 C 0 km/h
1132 11-08-2008 04:23:04 17.1 C 10.19 g/m*3 17.1 C 0 km/h
1133 11-08-2008 04:35:04 16.8 C 10.15 g/m*3 16.8 C 0 km/h
1134 11-08-2008 04:47:04 16.6 C 10.03 g/m*3 16.6 C 0 km/h
1135 11-08-2008 04:59:04 16 C 9.67 g/m*3 16 C 0 km/h
1136 11-08-2008 05:11:04 15.7 C 9.63 g/m*3 15.7 C 0 km/h
1137 11-08-2008 05:23:04 15.6 C 9.71 g/m*3 15.6 C 0 km/h
1138 11-08-2008 05:35:04 15.9 C 9.62 g/m*3 15.9 C 0 km/h
1139 11-08-2008 05:47:04 15.8 C 9.69 g/m*3 15.8 C 0 km/h
1140 11-08-2008 05:59:04 15.4 C 9.59 g/m*3 15.4 C 0 km/h
1141 11-08-2008 06:11:02 15.1 C 9.68 g/m*3 15.1 C 0 km/h
1142 11-08-2008 06:23:02 14.8 C 9.88 g/m*3 14.8 C 0 km/h
1143 11-08-2008 06:35:02 15 C 10.13 g/m*3 15 C 0 km/h
1144 11-08-2008 06:47:02 15.2 C 10.12 g/m*3 15.2 C 0 km/h
1145 11-08-2008 06:59:02 15 C 10 g/m*3 15 C 0 km/h
1146 11-08-2008 07:11:02 14.9 C 10.2 g/m*3 14.9 C 0 km/h
1147 11-08-2008 07:23:02 14.9 C 10.2 g/m*3 14.9 C 0 km/h
1148 11-08-2008 07:35:02 15 C 10.26 g/m*3 15 C 0 km/h
1149 11-08-2008 07:47:02 15.4 C 10.51 g/m*3 15.4 C 0 km/h
1150 11-08-2008 07:59:02 15.6 C 10.37 g/m*3 15.6 C 0 km/h
Sensor: Nr:Datum:Temp:Abs-Feuchte:Windchill:Wind:
Aussen-T/F 1151 11-08-2008 08:11:01 15.5 C 10.31 g/m*3 15.5 C 0 km/h
1152 11-08-2008 08:23:02 15.9 C 10.56 g/m*3 15.9 C 0 km/h
1153 11-08-2008 08:35:01 16.3 C 10.41 g/m*3 16.3 C 0 km/h
1154 11-08-2008 08:47:02 16.7 C 10.37 g/m*3 16.7 C 0 km/h
1155 11-08-2008 08:59:02 17.5 C 10.14 g/m*3 17.5 C 0 km/h
1156 11-08-2008 09:11:01 18.2 C 10.41 g/m*3 18.2 C 0 km/h
1157 11-08-2008 09:23:02 19.1 C 10.16 g/m*3 19.1 C 0 km/h
1158 11-08-2008 09:35:02 19.6 C 10.13 g/m*3 19.6 C 0 km/h
1159 11-08-2008 09:47:02 20.2 C 9.97 g/m*3 20.2 C 0 km/h
1160 11-08-2008 09:59:03 20.8 C 9.78 g/m*3 20.8 C 0 km/h
1161 11-08-2008 10:11:02 20.9 C 9.47 g/m*3 20.9 C 0 km/h
1162 11-08-2008 10:23:02 21 C 9.53 g/m*3 21 C 0 km/h
1163 11-08-2008 10:35:01 21.3 C 9.51 g/m*3 21.3 C 0 km/h
1164 11-08-2008 10:47:02 21.6 C 8.72 g/m*3 21.6 C 0 km/h
1165 11-08-2008 10:59:02 21.9 C 8.1 g/m*3 21.9 C 0 km/h
1166 11-08-2008 11:11:01 22.4 C 8.14 g/m*3 22.4 C 0 km/h
1167 11-08-2008 11:23:02 22.5 C 7.99 g/m*3 22.5 C 0 km/h
1168 11-08-2008 11:35:01 22.1 C 8.2 g/m*3 22.1 C 0 km/h
1169 11-08-2008 11:47:01 22.6 C 8.84 g/m*3 22.6 C 0 km/h
1170 11-08-2008 11:59:01 22 C 8.73 g/m*3 22 C 0 km/h
1171 11-08-2008 12:11:02 22.7 C 8.49 g/m*3 22.7 C 0 km/h
1172 11-08-2008 12:23:01 23.4 C 8.41 g/m*3 23.4 C 0 km/h
1173 11-08-2008 12:35:02 23.7 C 7.91 g/m*3 23.7 C 0 km/h
1174 11-08-2008 12:47:02 24.2 C 7.26 g/m*3 24.2 C 0 km/h
1175 11-08-2008 12:59:02 24.1 C 7 g/m*3 24.1 C 0 km/h
Sensor: Nr:Datum:Temp:Abs-Feuchte:Windchill:Wind:
Aussen-T/F 1176 11-08-2008 13:11:03 25.2 C 7.22 g/m*3 25.2 C 0 km/h
1177 11-08-2008 13:23:02 25.9 C 6.78 g/m*3 25.9 C 0 km/h
1178 11-08-2008 13:35:02 26 C 6.33 g/m*3 26 C 0 km/h
1179 11-08-2008 13:47:02 25.8 C 6.5 g/m*3 25.8 C 0 km/h
1180 11-08-2008 13:59:02 26.4 C 6.22 g/m*3 26.4 C 0 km/h
1181 11-08-2008 14:11:02 26.2 C 5.91 g/m*3 26.2 C 0 km/h
1182 11-08-2008 14:23:02 26.5 C 6.26 g/m*3 26.5 C 0 km/h
1183 11-08-2008 14:35:02 27.1 C 6.47 g/m*3 27.1 C 0 km/h
1184 11-08-2008 14:47:01 27.2 C 6.25 g/m*3 27.2 C 0 km/h
1185 11-08-2008 14:59:01 27 C 5.66 g/m*3 27 C 0 km/h
1186 11-08-2008 15:11:02 27.8 C 6.72 g/m*3 27.8 C 0 km/h
1187 11-08-2008 15:23:01 27.4 C 5.26 g/m*3 27.4 C 0 km/h
1188 11-08-2008 15:35:02 26.7 C 5.32 g/m*3 26.7 C 0 km/h
1189 11-08-2008 15:47:02 26.7 C 5.82 g/m*3 26.7 C 0 km/h
1190 11-08-2008 15:59:02 26.8 C 5.85 g/m*3 26.8 C 0 km/h
1191 11-08-2008 16:11:01 26.8 C 5.85 g/m*3 26.8 C 0 km/h
1192 11-08-2008 16:23:02 26.2 C 5.91 g/m*3 26.2 C 0 km/h
1193 11-08-2008 16:35:02 26.2 C 6.15 g/m*3 26.2 C 0 km/h
1194 11-08-2008 16:47:02 25.7 C 6.46 g/m*3 25.7 C 0 km/h
1195 11-08-2008 16:59:02 25 C 6.22 g/m*3 25 C 0 km/h
1196 11-08-2008 17:11:01 25 C 6.22 g/m*3 25 C 0 km/h
1197 11-08-2008 17:23:02 24.5 C 6.49 g/m*3 24.5 C 0 km/h
1198 11-08-2008 17:35:01 24.3 C 6.86 g/m*3 24.3 C 0 km/h
1199 11-08-2008 17:47:02 23.9 C 6.71 g/m*3 23.9 C 0 km/h
1200 11-08-2008 17:59:03 23.9 C 6.49 g/m*3 23.9 C 0 km/h
Sensor: Nr:Datum:Temp:Abs-Feuchte:Windchill:Wind:
Aussen-T/F 1201 11-08-2008 18:11:02 23.9 C 6.92 g/m*3 23.9 C 0 km/h
1202 11-08-2008 18:23:02 22.9 C 7.97 g/m*3 22.9 C 0 km/h
1203 11-08-2008 18:35:02 23.3 C 7.95 g/m*3 23.3 C 0 km/h
1204 11-08-2008 18:47:02 23.2 C 8.11 g/m*3 23.2 C 0 km/h
1205 11-08-2008 18:59:02 22.6 C 8.64 g/m*3 22.6 C 0 km/h
1206 11-08-2008 19:11:02 22.7 C 8.28 g/m*3 22.7 C 0 km/h
1207 11-08-2008 19:23:02 22.9 C 8.79 g/m*3 22.9 C 0 km/h
1208 11-08-2008 19:35:01 22.9 C 8.79 g/m*3 22.9 C 0 km/h
1209 11-08-2008 19:47:02 22.5 C 9.19 g/m*3 22.5 C 0 km/h
1210 11-08-2008 19:59:02 22.1 C 8.98 g/m*3 22.1 C 0 km/h
1211 11-08-2008 20:11:02 21.9 C 9.46 g/m*3 21.9 C 0 km/h
1212 11-08-2008 20:23:01 21.5 C 9.43 g/m*3 21.5 C 0 km/h
1213 11-08-2008 20:35:02 21.2 C 9.45 g/m*3 21.2 C 0 km/h
1214 11-08-2008 20:47:02 21.1 C 9.4 g/m*3 21.1 C 0 km/h
1215 11-08-2008 20:59:02 20.6 C 9.84 g/m*3 20.6 C 0 km/h
1216 11-08-2008 21:11:02 20.1 C 9.91 g/m*3 20.1 C 0 km/h
1217 11-08-2008 21:23:02 19.9 C 10.31 g/m*3 19.9 C 0 km/h
1218 11-08-2008 21:35:02 19.7 C 10.19 g/m*3 19.7 C 0 km/h
1219 11-08-2008 21:47:02 19.9 C 10.14 g/m*3 19.9 C 0 km/h
1220 11-08-2008 21:59:02 20.1 C 10.08 g/m*3 20.1 C 0 km/h
1221 11-08-2008 22:11:03 19.8 C 10.25 g/m*3 19.8 C 0 km/h
1222 11-08-2008 22:24:33 19.9 C 10.65 g/m*3 19.9 C 0 km/h
1223 11-08-2008 22:36:33 20 C 10.71 g/m*3 20 C 0 km/h
1224 11-08-2008 22:48:33 20 C 10.89 g/m*3 20 C 0 km/h
1225 11-08-2008 23:00:33 19.8 C 10.93 g/m*3 19.8 C 0 km/h
Sensor: Nr:Datum:Temp:Abs-Feuchte:Windchill:Wind:
Aussen-T/F 1226 11-08-2008 23:12:33 19.9 C 11.17 g/m*3 19.9 C 0 km/h
1227 11-08-2008 23:24:34 19.7 C 11.04 g/m*3 19.7 C 0 km/h
1228 11-08-2008 23:36:34 19.5 C 11.24 g/m*3 19.5 C 0 km/h
1229 11-08-2008 23:48:34 19.1 C 11.64 g/m*3 19.1 C 0 km/h
1230 12-08-2008 00:00:34 18.6 C 11.78 g/m*3 18.6 C 0 km/h
1231 12-08-2008 00:12:34 18.3 C 11.88 g/m*3 18.3 C 0 km/h
1232 12-08-2008 00:24:34 18.2 C 12.12 g/m*3 18.2 C 0 km/h
1233 12-08-2008 00:36:34 17.9 C 12.37 g/m*3 17.9 C 0 km/h
1234 12-08-2008 00:48:34 17.7 C 12.52 g/m*3 17.7 C 0 km/h
1235 12-08-2008 01:00:34 17.3 C 12.37 g/m*3 17.3 C 0 km/h
1236 12-08-2008 01:12:34 17 C 12.3 g/m*3 17 C 0 km/h
1237 12-08-2008 01:24:34 17.2 C 12.59 g/m*3 17.2 C 0 km/h
1238 12-08-2008 01:36:34 17.5 C 12.82 g/m*3 17.5 C 0 km/h
1239 12-08-2008 01:48:34 17.2 C 12.59 g/m*3 17.2 C 0 km/h
1240 12-08-2008 02:00:34 17.1 C 12.66 g/m*3 17.1 C 0 km/h
1241 12-08-2008 02:12:34 17 C 12.59 g/m*3 17 C 0 km/h
1242 12-08-2008 02:24:34 16.8 C 12.58 g/m*3 16.8 C 0 km/h
1243 12-08-2008 02:36:34 16.8 C 12.72 g/m*3 16.8 C 0 km/h
1244 12-08-2008 02:48:34 16.6 C 12.57 g/m*3 16.6 C 0 km/h
1245 12-08-2008 03:00:34 16.7 C 12.65 g/m*3 16.7 C 0 km/h
1246 12-08-2008 03:12:34 16.8 C 12.72 g/m*3 16.8 C 0 km/h
1247 12-08-2008 03:24:34 16.9 C 12.8 g/m*3 16.9 C 0 km/h
1248 12-08-2008 03:36:35 16.8 C 12.58 g/m*3 16.8 C 0 km/h
1249 12-08-2008 03:48:35 16.4 C 12.28 g/m*3 16.4 C 0 km/h
1250 12-08-2008 04:00:35 16.2 C 12.14 g/m*3 16.2 C 0 km/h
Sensor: Nr:Datum:Temp:Abs-Feuchte:Windchill:Wind:
Aussen-T/F 1251 12-08-2008 04:12:35 16 C 11.85 g/m*3 16 C 0 km/h
1252 12-08-2008 04:24:35 15.8 C 11.85 g/m*3 15.8 C 0 km/h
1253 12-08-2008 04:36:35 16 C 11.99 g/m*3 16 C 0 km/h
1254 12-08-2008 04:48:35 15.8 C 11.98 g/m*3 15.8 C 0 km/h
1255 12-08-2008 05:00:35 16 C 11.99 g/m*3 16 C 0 km/h
1256 12-08-2008 05:12:35 16.3 C 12.21 g/m*3 16.3 C 0 km/h
1257 12-08-2008 05:24:35 16.2 C 12.14 g/m*3 16.2 C 0 km/h
1258 12-08-2008 05:36:35 16.2 C 12 g/m*3 16.2 C 0 km/h
1259 12-08-2008 05:48:35 16.2 C 12 g/m*3 16.2 C 0 km/h
1260 12-08-2008 06:00:35 16.1 C 11.93 g/m*3 16.1 C 0 km/h
1261 12-08-2008 06:12:35 16 C 11.85 g/m*3 16 C 0 km/h
1262 12-08-2008 06:24:35 16 C 11.85 g/m*3 16 C 0 km/h
1263 12-08-2008 06:36:35 16.1 C 12.06 g/m*3 16.1 C 0 km/h
1264 12-08-2008 06:48:35 16 C 11.85 g/m*3 16 C 0 km/h
1265 12-08-2008 07:00:35 16.1 C 12.06 g/m*3 16.1 C 0 km/h
1266 12-08-2008 07:12:04 16.1 C 12.06 g/m*3 16.1 C 0 km/h
1267 12-08-2008 07:24:03 16.1 C 12.06 g/m*3 16.1 C 0 km/h
1268 12-08-2008 07:36:03 16.2 C 12.14 g/m*3 16.2 C 0 km/h
1269 12-08-2008 07:48:02 16.2 C 12.27 g/m*3 16.2 C 0 km/h
1270 12-08-2008 08:00:02 16.2 C 12.27 g/m*3 16.2 C 0 km/h
1271 12-08-2008 08:12:02 16.6 C 12.71 g/m*3 16.6 C 0 km/h
1272 12-08-2008 08:24:02 16.8 C 12.87 g/m*3 16.8 C 0 km/h
1273 12-08-2008 08:36:02 16.8 C 12.72 g/m*3 16.8 C 0 km/h
1274 12-08-2008 08:48:02 16.9 C 12.8 g/m*3 16.9 C 0 km/h
1275 12-08-2008 09:00:02 16.6 C 12.57 g/m*3 16.6 C 0 km/h
Sensor: Nr:Datum:Temp:Abs-Feuchte:Windchill:Wind:
Aussen-T/F 1276 12-08-2008 09:12:02 16.6 C 12.71 g/m*3 16.6 C 0 km/h
1277 12-08-2008 09:24:02 16.9 C 12.94 g/m*3 16.9 C 0 km/h
1278 12-08-2008 09:36:03 17 C 12.88 g/m*3 17 C 0 km/h
1279 12-08-2008 09:48:02 17.2 C 13.03 g/m*3 17.2 C 0 km/h
1280 12-08-2008 10:00:02 17.2 C 13.03 g/m*3 17.2 C 0 km/h
1281 12-08-2008 10:12:02 17.3 C 12.96 g/m*3 17.3 C 0 km/h
1282 12-08-2008 10:24:02 17.4 C 13.04 g/m*3 17.4 C 0 km/h
1283 12-08-2008 10:36:02 17.6 C 13.2 g/m*3 17.6 C 0 km/h
1284 12-08-2008 10:48:02 17.6 C 13.35 g/m*3 17.6 C 0 km/h
1285 12-08-2008 11:00:02 17.9 C 13.59 g/m*3 17.9 C 0 km/h
1286 12-08-2008 11:12:02 18 C 13.52 g/m*3 18 C 0 km/h
1287 12-08-2008 11:24:02 18.2 C 13.68 g/m*3 18.2 C 0 km/h
1288 12-08-2008 11:36:02 18.4 C 13.84 g/m*3 18.4 C 0 km/h
1289 12-08-2008 11:48:02 18.9 C 14.26 g/m*3 18.9 C 0 km/h
1290 12-08-2008 12:00:02 19.5 C 14.27 g/m*3 19.5 C 0 km/h
1291 12-08-2008 12:12:01 19.7 C 14.09 g/m*3 19.7 C 0 km/h
1292 12-08-2008 12:24:02 20.5 C 14.41 g/m*3 20.5 C 0 km/h
1293 12-08-2008 12:36:01 21.1 C 14.19 g/m*3 21.1 C 0 km/h
1294 12-08-2008 12:48:01 21.9 C 14.09 g/m*3 21.9 C 0 km/h
1295 12-08-2008 13:00:01 22.4 C 13.7 g/m*3 22.4 C 0 km/h
1296 12-08-2008 13:12:02 22.1 C 13.27 g/m*3 22.1 C 0 km/h
1297 12-08-2008 13:24:01 22.4 C 13.31 g/m*3 22.4 C 0 km/h
1298 12-08-2008 13:36:02 21.8 C 13.24 g/m*3 21.8 C 0 km/h
1299 12-08-2008 13:48:02 21.3 C 13.42 g/m*3 21.3 C 0 km/h
1300 12-08-2008 14:00:02 20.7 C 13.68 g/m*3 20.7 C 0 km/h
Sensor: Nr:Datum:Temp:Abs-Feuchte:Windchill:Wind:
Aussen-T/F 1301 12-08-2008 14:12:02 21.2 C 13.9 g/m*3 21.2 C 0 km/h
1302 12-08-2008 14:24:02 22.2 C 13.55 g/m*3 22.2 C 0 km/h
1303 12-08-2008 14:36:02 23.4 C 13.46 g/m*3 23.4 C 0 km/h
1304 12-08-2008 14:48:02 23.5 C 13.11 g/m*3 23.5 C 0 km/h
1305 12-08-2008 15:00:02 22.8 C 12.4 g/m*3 22.8 C 0 km/h
1306 12-08-2008 15:12:02 22.9 C 12.47 g/m*3 22.9 C 0 km/h
1307 12-08-2008 15:24:02 22.2 C 12.17 g/m*3 22.2 C 0 km/h
1308 12-08-2008 15:36:03 21.4 C 12.75 g/m*3 21.4 C 0 km/h
1309 12-08-2008 15:48:02 20.6 C 13.07 g/m*3 20.6 C 0 km/h
1310 12-08-2008 16:00:02 19.7 C 13.92 g/m*3 19.7 C 0 km/h
1311 12-08-2008 16:12:03 19.9 C 14.43 g/m*3 19.9 C 0 km/h
1312 12-08-2008 16:24:02 20.9 C 14.93 g/m*3 20.9 C 0 km/h
1313 12-08-2008 16:36:03 21.5 C 14.9 g/m*3 21.5 C 0 km/h
1314 12-08-2008 16:48:02 21.2 C 12.97 g/m*3 21.2 C 0 km/h
1315 12-08-2008 17:00:02 21.6 C 12.52 g/m*3 21.6 C 0 km/h
1316 12-08-2008 17:12:02 21.5 C 12.45 g/m*3 21.5 C 0 km/h
1317 12-08-2008 17:24:02 21.5 C 12.07 g/m*3 21.5 C 0 km/h
1318 12-08-2008 17:36:02 21.3 C 12.86 g/m*3 21.3 C 0 km/h
1319 12-08-2008 17:48:02 21.4 C 12.37 g/m*3 21.4 C 0 km/h
1320 12-08-2008 18:00:02 21.4 C 12 g/m*3 21.4 C 0 km/h
1321 12-08-2008 18:12:02 21.3 C 11.93 g/m*3 21.3 C 0 km/h
1322 12-08-2008 18:24:02 21.5 C 12.26 g/m*3 21.5 C 0 km/h
1323 12-08-2008 18:36:03 21.9 C 12.16 g/m*3 21.9 C 0 km/h
1324 12-08-2008 18:48:02 21.8 C 11.32 g/m*3 21.8 C 0 km/h
1325 12-08-2008 19:00:02 21.9 C 11.39 g/m*3 21.9 C 0 km/h
Sensor: Nr:Datum:Temp:Abs-Feuchte:Windchill:Wind:
Aussen-T/F 1326 12-08-2008 19:12:02 22.3 C 11.65 g/m*3 22.3 C 0 km/h
1327 12-08-2008 19:24:02 22.6 C 11.05 g/m*3 22.6 C 0 km/h
1328 12-08-2008 19:36:02 22.5 C 10.79 g/m*3 22.5 C 0 km/h
1329 12-08-2008 19:48:02 22.6 C 10.65 g/m*3 22.6 C 0 km/h
1330 12-08-2008 20:00:02 22.5 C 10.39 g/m*3 22.5 C 0 km/h
1331 12-08-2008 20:12:01 22.8 C 10.36 g/m*3 22.8 C 0 km/h
1332 12-08-2008 20:24:02 22.5 C 10.39 g/m*3 22.5 C 0 km/h
1333 12-08-2008 20:36:01 21.8 C 10.55 g/m*3 21.8 C 0 km/h
1334 12-08-2008 20:48:01 21.2 C 10.56 g/m*3 21.2 C 0 km/h
1335 12-08-2008 21:00:01 20.7 C 10.62 g/m*3 20.7 C 0 km/h
1336 12-08-2008 21:12:02 20.2 C 10.84 g/m*3 20.2 C 0 km/h
1337 12-08-2008 21:24:02 20 C 11.06 g/m*3 20 C 0 km/h
1338 12-08-2008 21:36:02 19.7 C 11.38 g/m*3 19.7 C 0 km/h
1339 12-08-2008 21:48:03 19.4 C 11.68 g/m*3 19.4 C 0 km/h
1340 12-08-2008 22:00:03 19.1 C 11.8 g/m*3 19.1 C 0 km/h
1341 12-08-2008 22:12:02 19 C 11.57 g/m*3 19 C 0 km/h
1342 12-08-2008 22:24:02 18.9 C 11.83 g/m*3 18.9 C 0 km/h
1343 12-08-2008 22:36:02 18.6 C 11.62 g/m*3 18.6 C 0 km/h
1344 12-08-2008 22:48:02 18.4 C 11.48 g/m*3 18.4 C 0 km/h
1345 12-08-2008 23:00:03 18.6 C 11.46 g/m*3 18.6 C 0 km/h
1346 12-08-2008 23:12:02 18.9 C 11.18 g/m*3 18.9 C 0 km/h
1347 12-08-2008 23:25:03 19.3 C 11.11 g/m*3 19.3 C 0 km/h
1348 12-08-2008 23:37:03 16.6 C 9.89 g/m*3 16.6 C 0 km/h
1349 12-08-2008 23:49:03 15.6 C 9.97 g/m*3 15.6 C 0 km/h

Legende:
   Min
   Max


Maximal/Minimal-Werte vom 17.04.2019 - 19.05.2019

Sensor Min Max Avg
Temp
(Aussen-T/F)
2.2 °C
13-05-2019  06:50:00
26.6 °C
24-04-2019  17:05:00
11.51 °C

Die Daten stammen von einer Davis Vantage Pro 2 Wetter-Station und werden unter Linux mit der Software wview2wettercgi und aufbereitet. Alle Angaben erfolgen ohne Gewähr für ihre Vollständigkeit oder Richtigkeit.
Kontakt: Rainer Krienke krienke@uni-koblenz.de . Meine Webseiten an der Uni Koblenz oder privat.
Version: $Revision: 0.78 $